Wetterdaten: Sonntag, 15.04.2018
Datum Zeit Temp. Aussen Temp. o. S. +5cm Feuchte Auss BlattFeu 1 Luftdruck Regen Sonnenschein Regendauer Solar Windben Empfang
15.04.2018 00:00 13,9 C 13,3 C 11,7 C 81 % 0 lf 1015,1 hPa 0,0 l/m 0 min 0 min 0 W/m 15,8 km/h (3 Bft) 97,87 %
15.04.2018 00:02 13,9 C 13,9 C 12,2 C 81 % 0 lf 1015,0 hPa 0,0 l/m 0 min 0 min 0 W/m 13,5 km/h (3 Bft) 95,00 %
15.04.2018 00:04 13,9 C 13,9 C 12,2 C 81 % 0 lf 1015,0 hPa 0,0 l/m 0 min 0 min 0 W/m 11,3 km/h (2 Bft) 89,36 %
15.04.2018 00:07 13,9 C 13,9 C 12,2 C 81 % 0 lf 1015,0 hPa 0,0 l/m 0 min 0 min 0 W/m 13,5 km/h (3 Bft) 89,36 %
15.04.2018 00:08 13,9 C 13,9 C 12,2 C 81 % 0 lf 1014,9 hPa 0,0 l/m 0 min 0 min 0 W/m 13,5 km/h (3 Bft) 97,06 %
15.04.2018 00:10 13,9 C 13,9 C 12,2 C 81 % 0 lf 1015,0 hPa 0,0 l/m 0 min 0 min 0 W/m 15,8 km/h (3 Bft) 97,14 %
15.04.2018 00:12 13,9 C 13,9 C 12,2 C 81 % 0 lf 1015,0 hPa 0,0 l/m 0 min 0 min 0 W/m 6,8 km/h (2 Bft) 95,74 %
15.04.2018 00:14 13,9 C 13,9 C 12,2 C 81 % 0 lf 1015,0 hPa 0,0 l/m 0 min 0 min 0 W/m 6,8 km/h (2 Bft) 97,83 %
15.04.2018 00:16 13,9 C 13,3 C 11,7 C 81 % 0 lf 1015,1 hPa 0,0 l/m 0 min 0 min 0 W/m 6,8 km/h (2 Bft) 93,62 %
15.04.2018 00:18 13,9 C 13,3 C 11,7 C 81 % 0 lf 1015,1 hPa 0,0 l/m 0 min 0 min 0 W/m 4,5 km/h (1 Bft) 97,87 %
15.04.2018 00:20 13,9 C 13,3 C 11,7 C 81 % 0 lf 1015,1 hPa 0,0 l/m 0 min 0 min 0 W/m 4,5 km/h (1 Bft) 97,87 %
15.04.2018 00:22 13,9 C 13,3 C 11,7 C 81 % 0 lf 1015,1 hPa 0,0 l/m 0 min 0 min 0 W/m 2,3 km/h (1 Bft) 95,74 %
15.04.2018 00:24 13,9 C 13,3 C 11,7 C 81 % 1 lf 1015,0 hPa 0,0 l/m 0 min 0 min 0 W/m 4,5 km/h (1 Bft) 95,74 %
15.04.2018 00:26 13,9 C 13,3 C 11,7 C 81 % 0 lf 1015,0 hPa 0,0 l/m 0 min 2 min 0 W/m 4,5 km/h (1 Bft) 97,83 %
15.04.2018 00:28 13,9 C 13,3 C 11,7 C 81 % 0 lf 1015,1 hPa 0,0 l/m 0 min 0 min 0 W/m 4,5 km/h (1 Bft) 93,62 %
15.04.2018 00:30 13,9 C 13,3 C 11,7 C 81 % 0 lf 1015,0 hPa 0,0 l/m 0 min 0 min 0 W/m 6,8 km/h (2 Bft) 95,74 %
15.04.2018 00:32 13,9 C 13,3 C 11,7 C 81 % 0 lf 1015,1 hPa 0,0 l/m 0 min 0 min 0 W/m 2,3 km/h (1 Bft) 100,00 %
15.04.2018 00:34 13,9 C 13,3 C 11,7 C 81 % 0 lf 1015,1 hPa 0,0 l/m 0 min 0 min 0 W/m 2,3 km/h (1 Bft) 100,00 %
15.04.2018 00:36 13,9 C 13,3 C 11,7 C 81 % 1 lf 1015,2 hPa 0,0 l/m 0 min 0 min 0 W/m 2,3 km/h (1 Bft) 97,87 %
15.04.2018 00:38 13,9 C 13,3 C 11,7 C 81 % 0 lf 1015,6 hPa 0,0 l/m 0 min 0 min 0 W/m 13,5 km/h (3 Bft) 97,83 %
15.04.2018 00:40 13,9 C 13,3 C 11,7 C 82 % 0 lf 1015,9 hPa 0,0 l/m 0 min 0 min 0 W/m 20,3 km/h (4 Bft) 97,87 %
15.04.2018 00:42 13,9 C 13,3 C 11,7 C 82 % 1 lf 1015,7 hPa 0,0 l/m 0 min 0 min 0 W/m 24,8 km/h (4 Bft) 97,87 %
15.04.2018 00:44 13,9 C 13,3 C 11,7 C 82 % 0 lf 1015,8 hPa 0,0 l/m 0 min 2 min 0 W/m 15,8 km/h (3 Bft) 97,87 %
15.04.2018 00:46 13,9 C 13,3 C 11,7 C 82 % 1 lf 1015,8 hPa 0,0 l/m 0 min 2 min 0 W/m 13,5 km/h (3 Bft) 93,62 %
15.04.2018 00:48 13,9 C 12,8 C 11,7 C 82 % 15 lf 1015,8 hPa 0,0 l/m 0 min 2 min 0 W/m 13,5 km/h (3 Bft) 100,00 %
15.04.2018 00:50 13,9 C 12,2 C 11,1 C 82 % 15 lf 1015,8 hPa 0,0 l/m 0 min 2 min 0 W/m 13,5 km/h (3 Bft) 98,28 %
15.04.2018 00:52 13,9 C 11,7 C 11,1 C 83 % 15 lf 1015,8 hPa 0,2 l/m 0 min 2 min 0 W/m 22,5 km/h (4 Bft) 100,00 %
15.04.2018 00:54 13,9 C 11,7 C 11,1 C 83 % 15 lf 1015,8 hPa 0,0 l/m 0 min 2 min 0 W/m 22,5 km/h (4 Bft) 95,74 %
15.04.2018 00:56 13,9 C 11,7 C 11,1 C 84 % 15 lf 1015,9 hPa 0,0 l/m 0 min 2 min 0 W/m 13,5 km/h (3 Bft) 100,00 %
15.04.2018 00:58 13,9 C 11,7 C 10,6 C 85 % 15 lf 1015,8 hPa 0,0 l/m 0 min 2 min 0 W/m 13,5 km/h (3 Bft) 95,74 %
15.04.2018 01:00 13,9 C 11,7 C 11,1 C 85 % 15 lf 1015,9 hPa 0,0 l/m 0 min 2 min 0 W/m 13,5 km/h (3 Bft) 97,87 %
15.04.2018 01:02 13,9 C 11,7 C 11,1 C 85 % 15 lf 1015,8 hPa 0,0 l/m 0 min 2 min 0 W/m 15,8 km/h (3 Bft) 95,65 %
15.04.2018 01:04 13,9 C 11,7 C 11,1 C 86 % 15 lf 1015,8 hPa 0,2 l/m 0 min 2 min 0 W/m 18,0 km/h (3 Bft) 97,87 %
15.04.2018 01:06 13,9 C 11,7 C 11,1 C 87 % 15 lf 1015,9 hPa 0,0 l/m 0 min 2 min 0 W/m 15,8 km/h (3 Bft) 93,62 %
15.04.2018 01:08 13,8 C 11,7 C 11,1 C 87 % 15 lf 1015,7 hPa 0,0 l/m 0 min 2 min 0 W/m 13,5 km/h (3 Bft) 97,87 %
15.04.2018 01:10 13,8 C 11,7 C 11,1 C 87 % 15 lf 1015,8 hPa 0,0 l/m 0 min 2 min 0 W/m 13,5 km/h (3 Bft) 97,87 %
15.04.2018 01:12 13,8 C 11,7 C 11,1 C 88 % 15 lf 1015,7 hPa 0,2 l/m 0 min 2 min 0 W/m 13,5 km/h (3 Bft) 95,74 %
15.04.2018 01:14 13,7 C 11,7 C 11,1 C 88 % 15 lf 1015,6 hPa 0,0 l/m 0 min 2 min 0 W/m 13,5 km/h (3 Bft) 97,83 %
15.04.2018 01:16 13,7 C 11,7 C 11,1 C 88 % 15 lf 1015,6 hPa 0,0 l/m 0 min 2 min 0 W/m 11,3 km/h (2 Bft) 97,87 %
15.04.2018 01:18 13,7 C 11,7 C 11,1 C 89 % 15 lf 1015,7 hPa 0,0 l/m 0 min 2 min 0 W/m 13,5 km/h (3 Bft) 95,74 %
15.04.2018 01:20 13,6 C 11,7 C 11,1 C 89 % 15 lf 1015,6 hPa 0,0 l/m 0 min 2 min 0 W/m 13,5 km/h (3 Bft) 95,74 %
15.04.2018 01:22 13,6 C 11,7 C 10,6 C 89 % 15 lf 1015,6 hPa 0,0 l/m 0 min 2 min 0 W/m 9,0 km/h (2 Bft) 95,74 %
15.04.2018 01:24 13,5 C 11,7 C 10,6 C 89 % 15 lf 1015,6 hPa 0,0 l/m 0 min 2 min 0 W/m 6,8 km/h (2 Bft) 95,65 %
15.04.2018 01:26 13,5 C 11,7 C 10,6 C 89 % 15 lf 1015,6 hPa 0,0 l/m 0 min 2 min 0 W/m 9,0 km/h (2 Bft) 95,74 %
15.04.2018 01:28 13,4 C 11,7 C 10,6 C 90 % 15 lf 1015,6 hPa 0,0 l/m 0 min 2 min 0 W/m 11,3 km/h (2 Bft) 95,74 %
15.04.2018 01:30 13,4 C 11,7 C 10,6 C 90 % 15 lf 1015,6 hPa 0,0 l/m 0 min 2 min 0 W/m 11,3 km/h (2 Bft) 95,74 %
15.04.2018 01:32 13,4 C 11,7 C 10,6 C 90 % 15 lf 1015,7 hPa 0,0 l/m 0 min 2 min 0 W/m 11,3 km/h (2 Bft) 95,74 %
15.04.2018 01:34 13,3 C 11,7 C 10,6 C 90 % 15 lf 1015,5 hPa 0,0 l/m 0 min 2 min 0 W/m 9,0 km/h (2 Bft) 95,74 %
15.04.2018 01:36 13,3 C 11,7 C 10,6 C 90 % 15 lf 1015,6 hPa 0,0 l/m 0 min 0 min 0 W/m 9,0 km/h (2 Bft) 95,65 %
15.04.2018 01:38 13,3 C 11,7 C 10,6 C 90 % 15 lf 1015,5 hPa 0,0 l/m 0 min 0 min 0 W/m 9,0 km/h (2 Bft) 91,49 %
15.04.2018 01:40 13,2 C 11,7 C 10,6 C 91 % 15 lf 1015,5 hPa 0,0 l/m 0 min 0 min 0 W/m 9,0 km/h (2 Bft) 95,74 %
15.04.2018 01:42 13,2 C 11,7 C 10,6 C 91 % 15 lf 1015,6 hPa 0,0 l/m 0 min 2 min 0 W/m 9,0 km/h (2 Bft) 97,87 %
15.04.2018 01:44 13,2 C 11,7 C 10,6 C 91 % 15 lf 1015,5 hPa 0,0 l/m 0 min 0 min 0 W/m 9,0 km/h (2 Bft) 97,87 %
15.04.2018 01:46 13,2 C 11,7 C 10,6 C 91 % 15 lf 1015,4 hPa 0,0 l/m 0 min 2 min 0 W/m 6,8 km/h (2 Bft) 97,87 %
15.04.2018 01:48 13,1 C 11,7 C 10,6 C 91 % 15 lf 1015,4 hPa 0,0 l/m 0 min 2 min 0 W/m 9,0 km/h (2 Bft) 100,00 %
15.04.2018 01:50 13,1 C 11,7 C 10,6 C 91 % 15 lf 1015,5 hPa 0,0 l/m 0 min 2 min 0 W/m 9,0 km/h (2 Bft) 100,00 %
15.04.2018 01:52 13,1 C 11,7 C 10,6 C 91 % 15 lf 1015,4 hPa 0,0 l/m 0 min 2 min 0 W/m 9,0 km/h (2 Bft) 100,00 %
15.04.2018 01:54 13,1 C 11,7 C 10,6 C 91 % 15 lf 1015,4 hPa 0,0 l/m 0 min 2 min 0 W/m 11,3 km/h (2 Bft) 100,00 %
15.04.2018 01:56 13,0 C 11,7 C 10,6 C 92 % 15 lf 1015,4 hPa 0,0 l/m 0 min 2 min 0 W/m 11,3 km/h (2 Bft) 97,87 %
15.04.2018 01:58 13,0 C 11,7 C 10,6 C 92 % 15 lf 1015,3 hPa 0,0 l/m 0 min 2 min 0 W/m 6,8 km/h (2 Bft) 100,00 %
15.04.2018 02:00 13,0 C 11,7 C 10,6 C 92 % 15 lf 1015,3 hPa 0,0 l/m 0 min 2 min 0 W/m 9,0 km/h (2 Bft) 100,00 %
15.04.2018 02:02 12,9 C 11,7 C 10,6 C 92 % 15 lf 1015,3 hPa 0,0 l/m 0 min 2 min 0 W/m 9,0 km/h (2 Bft) 97,87 %
15.04.2018 02:04 12,9 C 11,7 C 10,6 C 92 % 15 lf 1015,3 hPa 0,0 l/m 0 min 2 min 0 W/m 9,0 km/h (2 Bft) 100,00 %
15.04.2018 02:06 12,9 C 11,7 C 10,6 C 92 % 15 lf 1015,3 hPa 0,0 l/m 0 min 2 min 0 W/m 6,8 km/h (2 Bft) 100,00 %
15.04.2018 02:08 12,9 C 11,7 C 10,6 C 92 % 15 lf 1015,3 hPa 0,0 l/m 0 min 2 min 0 W/m 6,8 km/h (2 Bft) 100,00 %
15.04.2018 02:10 12,9 C 11,7 C 10,6 C 92 % 15 lf 1015,3 hPa 0,0 l/m 0 min 2 min 0 W/m 6,8 km/h (2 Bft) 100,00 %
15.04.2018 02:12 12,9 C 11,7 C 10,6 C 92 % 15 lf 1015,2 hPa 0,0 l/m 0 min 2 min 0 W/m 6,8 km/h (2 Bft) 95,65 %
15.04.2018 02:14 12,9 C 11,7 C 10,6 C 92 % 15 lf 1015,2 hPa 0,0 l/m 0 min 2 min 0 W/m 6,8 km/h (2 Bft) 97,87 %
15.04.2018 02:16 12,8 C 11,7 C 10,6 C 93 % 15 lf 1015,2 hPa 0,0 l/m 0 min 2 min 0 W/m 6,8 km/h (2 Bft) 97,87 %
15.04.2018 02:18 12,8 C 11,7 C 10,6 C 93 % 15 lf 1015,2 hPa 0,0 l/m 0 min 2 min 0 W/m 4,5 km/h (1 Bft) 95,74 %
15.04.2018 02:20 12,8 C 11,7 C 10,6 C 93 % 15 lf 1015,1 hPa 0,0 l/m 0 min 2 min 0 W/m 4,5 km/h (1 Bft) 93,62 %
15.04.2018 02:22 12,8 C 11,7 C 10,6 C 93 % 15 lf 1015,1 hPa 0,2 l/m 0 min 2 min 0 W/m 2,3 km/h (1 Bft) 97,87 %
15.04.2018 02:24 12,8 C 11,7 C 10,6 C 93 % 15 lf 1015,0 hPa 0,0 l/m 0 min 2 min 0 W/m 6,8 km/h (2 Bft) 97,83 %
15.04.2018 02:26 12,8 C 11,7 C 10,6 C 93 % 15 lf 1015,0 hPa 0,0 l/m 0 min 2 min 0 W/m 4,5 km/h (1 Bft) 97,87 %
15.04.2018 02:28 12,8 C 11,7 C 10,6 C 93 % 15 lf 1015,0 hPa 0,0 l/m 0 min 2 min 0 W/m 2,3 km/h (1 Bft) 95,74 %
15.04.2018 02:30 12,8 C 11,7 C 10,6 C 93 % 15 lf 1015,0 hPa 0,0 l/m 0 min 2 min 0 W/m 0,0 km/h (0 Bft) 95,74 %
15.04.2018 02:32 12,7 C 11,7 C 10,6 C 93 % 15 lf 1015,0 hPa 0,0 l/m 0 min 2 min 0 W/m 0,0 km/h (0 Bft) 95,74 %
15.04.2018 02:34 12,7 C 11,7 C 10,6 C 93 % 15 lf 1015,0 hPa 0,0 l/m 0 min 2 min 0 W/m 0,0 km/h (0 Bft) 93,62 %
15.04.2018 02:36 12,7 C 11,7 C 10,6 C 93 % 15 lf 1014,9 hPa 0,0 l/m 0 min 2 min 0 W/m 0,0 km/h (0 Bft) 95,65 %
15.04.2018 02:38 12,7 C 11,7 C 10,6 C 93 % 15 lf 1014,9 hPa 0,0 l/m 0 min 2 min 0 W/m 0,0 km/h (0 Bft) 95,74 %
15.04.2018 02:40 12,7 C 11,7 C 10,6 C 93 % 15 lf 1014,9 hPa 0,0 l/m 0 min 2 min 0 W/m 0,0 km/h (0 Bft) 95,74 %
15.04.2018 02:42 12,7 C 11,7 C 10,6 C 93 % 15 lf 1014,9 hPa 0,0 l/m 0 min 2 min 0 W/m 0,0 km/h (0 Bft) 93,62 %
15.04.2018 02:44 12,7 C 11,7 C 10,6 C 93 % 15 lf 1014,9 hPa 0,0 l/m 0 min 2 min 0 W/m 0,0 km/h (0 Bft) 93,62 %
15.04.2018 02:46 12,7 C 11,7 C 10,6 C 93 % 15 lf 1014,9 hPa 0,0 l/m 0 min 2 min 0 W/m 0,0 km/h (0 Bft) 95,65 %
15.04.2018 02:48 12,7 C 11,7 C 10,6 C 93 % 15 lf 1014,9 hPa 0,0 l/m 0 min 2 min 0 W/m 0,0 km/h (0 Bft) 95,74 %
15.04.2018 02:50 12,7 C 11,7 C 10,6 C 93 % 15 lf 1014,8 hPa 0,0 l/m 0 min 2 min 0 W/m 0,0 km/h (0 Bft) 95,74 %
15.04.2018 02:52 12,7 C 11,7 C 10,6 C 93 % 15 lf 1014,8 hPa 0,0 l/m 0 min 2 min 0 W/m 0,0 km/h (0 Bft) 93,62 %
15.04.2018 02:54 12,7 C 11,7 C 10,6 C 93 % 15 lf 1014,8 hPa 0,0 l/m 0 min 2 min 0 W/m 0,0 km/h (0 Bft) 95,74 %
15.04.2018 02:56 12,7 C 11,7 C 10,6 C 94 % 15 lf 1014,8 hPa 0,0 l/m 0 min 0 min 0 W/m 0,0 km/h (0 Bft) 95,74 %
15.04.2018 02:58 12,6 C 11,7 C 10,6 C 94 % 15 lf 1014,8 hPa 0,0 l/m 0 min 2 min 0 W/m 0,0 km/h (0 Bft) 91,30 %
15.04.2018 03:00 12,6 C 11,7 C 10,6 C 94 % 15 lf 1014,8 hPa 0,0 l/m 0 min 2 min 0 W/m 0,0 km/h (0 Bft) 93,62 %
15.04.2018 03:02 12,6 C 11,7 C 10,6 C 94 % 15 lf 1014,7 hPa 0,0 l/m 0 min 2 min 0 W/m 0,0 km/h (0 Bft) 91,49 %
15.04.2018 03:04 12,6 C 11,7 C 10,6 C 94 % 15 lf 1014,8 hPa 0,0 l/m 0 min 2 min 0 W/m 0,0 km/h (0 Bft) 95,74 %
15.04.2018 03:06 12,6 C 11,7 C 10,6 C 94 % 15 lf 1014,8 hPa 0,0 l/m 0 min 2 min 0 W/m 0,0 km/h (0 Bft) 95,74 %
15.04.2018 03:08 12,6 C 11,7 C 10,6 C 94 % 15 lf 1014,7 hPa 0,0 l/m 0 min 0 min 0 W/m 0,0 km/h (0 Bft) 91,49 %
15.04.2018 03:10 12,6 C 11,7 C 10,6 C 94 % 15 lf 1014,7 hPa 0,0 l/m 0 min 2 min 0 W/m 0,0 km/h (0 Bft) 95,65 %
15.04.2018 03:12 12,6 C 11,7 C 10,6 C 94 % 15 lf 1014,7 hPa 0,0 l/m 0 min 0 min 0 W/m 4,5 km/h (1 Bft) 95,74 %
15.04.2018 03:14 12,6 C 11,7 C 10,6 C 94 % 15 lf 1014,7 hPa 0,0 l/m 0 min 0 min 0 W/m 0,0 km/h (0 Bft) 93,62 %
15.04.2018 03:16 12,6 C 11,7 C 10,6 C 94 % 15 lf 1014,7 hPa 0,0 l/m 0 min 2 min 0 W/m 0,0 km/h (0 Bft) 93,62 %
15.04.2018 03:18 12,6 C 11,7 C 10,6 C 94 % 15 lf 1014,7 hPa 0,0 l/m 0 min 0 min 0 W/m 9,0 km/h (2 Bft) 95,74 %
15.04.2018 03:20 12,6 C 11,7 C 10,6 C 94 % 15 lf 1014,7 hPa 0,0 l/m 0 min 2 min 0 W/m 6,8 km/h (2 Bft) 95,74 %
15.04.2018 03:22 12,6 C 11,7 C 10,6 C 94 % 15 lf 1014,6 hPa 0,0 l/m 0 min 2 min 0 W/m 4,5 km/h (1 Bft) 97,83 %
15.04.2018 03:24 12,6 C 11,7 C 10,6 C 94 % 15 lf 1014,6 hPa 0,0 l/m 0 min 2 min 0 W/m 4,5 km/h (1 Bft) 97,87 %
15.04.2018 03:26 12,6 C 11,7 C 10,6 C 94 % 15 lf 1014,6 hPa 0,0 l/m 0 min 2 min 0 W/m 6,8 km/h (2 Bft) 95,74 %
15.04.2018 03:28 12,6 C 11,7 C 10,6 C 94 % 15 lf 1014,6 hPa 0,0 l/m 0 min 2 min 0 W/m 9,0 km/h (2 Bft) 93,62 %
15.04.2018 03:30 12,6 C 11,7 C 10,6 C 95 % 15 lf 1014,5 hPa 0,0 l/m 0 min 2 min 0 W/m 6,8 km/h (2 Bft) 96,00 %
15.04.2018 03:32 12,6 C 11,7 C 10,6 C 95 % 15 lf 1014,5 hPa 0,0 l/m 0 min 2 min 0 W/m 6,8 km/h (2 Bft) 93,48 %
15.04.2018 03:34 12,6 C 11,7 C 10,6 C 95 % 15 lf 1014,4 hPa 0,0 l/m 0 min 2 min 0 W/m 4,5 km/h (1 Bft) 97,87 %
15.04.2018 03:36 12,6 C 11,7 C 10,6 C 95 % 15 lf 1014,4 hPa 0,0 l/m 0 min 2 min 0 W/m 4,5 km/h (1 Bft) 95,74 %
15.04.2018 03:38 12,6 C 11,7 C 10,6 C 95 % 15 lf 1014,3 hPa 0,0 l/m 0 min 2 min 0 W/m 4,5 km/h (1 Bft) 97,87 %
15.04.2018 03:40 12,6 C 11,7 C 10,6 C 95 % 15 lf 1014,4 hPa 0,0 l/m 0 min 2 min 0 W/m 4,5 km/h (1 Bft) 95,74 %
15.04.2018 03:42 12,6 C 11,7 C 10,6 C 95 % 15 lf 1014,3 hPa 0,0 l/m 0 min 2 min 0 W/m 2,3 km/h (1 Bft) 95,74 %
15.04.2018 03:44 12,6 C 11,7 C 10,6 C 95 % 15 lf 1014,3 hPa 0,0 l/m 0 min 2 min 0 W/m 2,3 km/h (1 Bft) 95,65 %
15.04.2018 03:46 12,6 C 11,7 C 10,6 C 95 % 15 lf 1014,3 hPa 0,0 l/m 0 min 2 min 0 W/m 0,0 km/h (0 Bft) 97,87 %
15.04.2018 03:48 12,6 C 11,7 C 10,6 C 95 % 15 lf 1014,3 hPa 0,0 l/m 0 min 2 min 0 W/m 4,5 km/h (1 Bft) 97,87 %
15.04.2018 03:50 12,5 C 11,7 C 10,6 C 95 % 15 lf 1014,3 hPa 0,0 l/m 0 min 2 min 0 W/m 2,3 km/h (1 Bft) 95,74 %
15.04.2018 03:52 12,5 C 11,7 C 10,6 C 95 % 15 lf 1014,3 hPa 0,0 l/m 0 min 2 min 0 W/m 2,3 km/h (1 Bft) 97,87 %
15.04.2018 03:54 12,5 C 11,7 C 10,6 C 95 % 15 lf 1014,3 hPa 0,0 l/m 0 min 2 min 0 W/m 4,5 km/h (1 Bft) 93,62 %
15.04.2018 03:56 12,5 C 11,7 C 10,6 C 95 % 15 lf 1014,3 hPa 0,0 l/m 0 min 2 min 0 W/m 6,8 km/h (2 Bft) 97,83 %
15.04.2018 03:58 12,5 C 11,7 C 10,6 C 95 % 15 lf 1014,2 hPa 0,0 l/m 0 min 2 min 0 W/m 4,5 km/h (1 Bft) 97,87 %
15.04.2018 04:00 12,5 C 11,7 C 10,6 C 95 % 15 lf 1014,2 hPa 0,0 l/m 0 min 2 min 0 W/m 4,5 km/h (1 Bft) 97,87 %
15.04.2018 04:02 12,5 C 11,7 C 10,6 C 95 % 15 lf 1014,2 hPa 0,0 l/m 0 min 2 min 0 W/m 6,8 km/h (2 Bft) 93,33 %
15.04.2018 04:04 12,5 C 11,7 C 10,6 C 95 % 15 lf 1014,2 hPa 0,0 l/m 0 min 2 min 0 W/m 9,0 km/h (2 Bft) 100,00 %
15.04.2018 04:06 12,4 C 11,7 C 10,6 C 95 % 15 lf 1014,1 hPa 0,0 l/m 0 min 2 min 0 W/m 2,3 km/h (1 Bft) 97,87 %
15.04.2018 04:08 12,4 C 11,7 C 10,6 C 95 % 15 lf 1014,2 hPa 0,0 l/m 0 min 2 min 0 W/m 6,8 km/h (2 Bft) 97,83 %
15.04.2018 04:10 12,4 C 11,7 C 10,6 C 95 % 15 lf 1014,2 hPa 0,0 l/m 0 min 2 min 0 W/m 6,8 km/h (2 Bft) 97,87 %
15.04.2018 04:12 12,4 C 11,7 C 10,6 C 95 % 15 lf 1014,3 hPa 0,0 l/m 0 min 2 min 0 W/m 9,0 km/h (2 Bft) 95,74 %
15.04.2018 04:14 12,4 C 11,7 C 10,6 C 95 % 15 lf 1014,2 hPa 0,0 l/m 0 min 2 min 0 W/m 9,0 km/h (2 Bft) 95,74 %
15.04.2018 04:16 12,4 C 11,7 C 10,6 C 95 % 15 lf 1014,2 hPa 0,0 l/m 0 min 2 min 0 W/m 2,3 km/h (1 Bft) 97,87 %
15.04.2018 04:18 12,4 C 11,7 C 10,6 C 96 % 15 lf 1014,2 hPa 0,0 l/m 0 min 2 min 0 W/m 4,5 km/h (1 Bft) 97,87 %
15.04.2018 04:20 12,4 C 11,7 C 10,6 C 96 % 15 lf 1014,3 hPa 0,0 l/m 0 min 2 min 0 W/m 6,8 km/h (2 Bft) 95,65 %
15.04.2018 04:22 12,4 C 11,7 C 10,6 C 96 % 15 lf 1014,2 hPa 0,0 l/m 0 min 2 min 0 W/m 6,8 km/h (2 Bft) 93,62 %
15.04.2018 04:24 12,4 C 11,7 C 10,6 C 96 % 15 lf 1014,1 hPa 0,0 l/m 0 min 2 min 0 W/m 4,5 km/h (1 Bft) 97,87 %
15.04.2018 04:26 12,4 C 11,7 C 10,6 C 96 % 15 lf 1014,1 hPa 0,2 l/m 0 min 2 min 0 W/m 6,8 km/h (2 Bft) 95,74 %
15.04.2018 04:28 12,4 C 11,7 C 10,6 C 96 % 15 lf 1014,2 hPa 0,0 l/m 0 min 2 min 0 W/m 4,5 km/h (1 Bft) 97,87 %
15.04.2018 04:30 12,4 C 11,7 C 10,6 C 96 % 15 lf 1014,2 hPa 0,0 l/m 0 min 2 min 0 W/m 6,8 km/h (2 Bft) 97,87 %
15.04.2018 04:32 12,3 C 11,7 C 10,6 C 96 % 15 lf 1014,1 hPa 0,0 l/m 0 min 2 min 0 W/m 4,5 km/h (1 Bft) 100,00 %
15.04.2018 04:34 12,3 C 11,7 C 10,6 C 96 % 15 lf 1014,1 hPa 0,0 l/m 0 min 2 min 0 W/m 6,8 km/h (2 Bft) 97,87 %
15.04.2018 04:36 12,3 C 11,7 C 10,6 C 96 % 15 lf 1014,1 hPa 0,0 l/m 0 min 2 min 0 W/m 4,5 km/h (1 Bft) 95,74 %
15.04.2018 04:38 12,3 C 11,7 C 10,6 C 96 % 15 lf 1014,1 hPa 0,0 l/m 0 min 2 min 0 W/m 6,8 km/h (2 Bft) 100,00 %
15.04.2018 04:40 12,3 C 11,7 C 10,6 C 96 % 15 lf 1014,1 hPa 0,2 l/m 0 min 2 min 0 W/m 6,8 km/h (2 Bft) 97,87 %
15.04.2018 04:42 12,3 C 11,7 C 10,6 C 96 % 15 lf 1014,1 hPa 0,0 l/m 0 min 2 min 0 W/m 6,8 km/h (2 Bft) 100,00 %
15.04.2018 04:44 12,3 C 11,7 C 10,6 C 96 % 15 lf 1014,1 hPa 0,0 l/m 0 min 2 min 0 W/m 6,8 km/h (2 Bft) 100,00 %
15.04.2018 04:46 12,3 C 11,7 C 10,6 C 96 % 15 lf 1014,1 hPa 0,0 l/m 0 min 2 min 0 W/m 6,8 km/h (2 Bft) 95,92 %
15.04.2018 04:48 12,3 C 11,7 C 10,6 C 96 % 15 lf 1014,1 hPa 0,2 l/m 0 min 2 min 0 W/m 9,0 km/h (2 Bft) 100,00 %
15.04.2018 04:50 12,3 C 11,7 C 10,6 C 96 % 15 lf 1014,1 hPa 0,0 l/m 0 min 2 min 0 W/m 9,0 km/h (2 Bft) 100,00 %
15.04.2018 04:52 12,3 C 11,7 C 10,6 C 96 % 15 lf 1014,1 hPa 0,0 l/m 0 min 2 min 0 W/m 9,0 km/h (2 Bft) 100,00 %
15.04.2018 04:54 12,3 C 11,7 C 10,6 C 96 % 15 lf 1014,1 hPa 0,2 l/m 0 min 2 min 0 W/m 9,0 km/h (2 Bft) 97,83 %
15.04.2018 04:56 12,3 C 11,1 C 10,6 C 96 % 15 lf 1014,1 hPa 0,0 l/m 0 min 2 min 0 W/m 15,8 km/h (3 Bft) 97,87 %
15.04.2018 04:58 12,2 C 11,1 C 10,6 C 96 % 15 lf 1014,1 hPa 0,0 l/m 0 min 2 min 0 W/m 15,8 km/h (3 Bft) 100,00 %
15.04.2018 05:00 12,2 C 11,1 C 10,6 C 96 % 15 lf 1014,1 hPa 0,2 l/m 0 min 2 min 0 W/m 11,3 km/h (2 Bft) 97,87 %
15.04.2018 05:02 12,2 C 11,1 C 10,6 C 96 % 15 lf 1014,1 hPa 0,0 l/m 0 min 2 min 0 W/m 9,0 km/h (2 Bft) 97,87 %
15.04.2018 05:04 12,2 C 11,1 C 10,6 C 96 % 15 lf 1014,1 hPa 0,0 l/m 0 min 2 min 0 W/m 15,8 km/h (3 Bft) 100,00 %
15.04.2018 05:06 12,2 C 11,1 C 10,6 C 96 % 15 lf 1014,1 hPa 0,0 l/m 0 min 2 min 0 W/m 9,0 km/h (2 Bft) 95,65 %
15.04.2018 05:08 12,2 C 11,1 C 10,6 C 96 % 15 lf 1014,1 hPa 0,0 l/m 0 min 2 min 0 W/m 6,8 km/h (2 Bft) 95,74 %
15.04.2018 05:10 12,2 C 11,1 C 10,6 C 96 % 15 lf 1014,1 hPa 0,0 l/m 0 min 2 min 0 W/m 15,8 km/h (3 Bft) 95,74 %
15.04.2018 05:12 12,2 C 11,1 C 10,6 C 96 % 15 lf 1014,1 hPa 0,0 l/m 0 min 2 min 0 W/m 13,5 km/h (3 Bft) 97,87 %
15.04.2018 05:14 12,2 C 11,1 C 10,6 C 96 % 15 lf 1014,0 hPa 0,0 l/m 0 min 2 min 0 W/m 13,5 km/h (3 Bft) 95,74 %
15.04.2018 05:16 12,1 C 11,1 C 10,6 C 96 % 15 lf 1014,0 hPa 0,0 l/m 0 min 2 min 0 W/m 9,0 km/h (2 Bft) 93,62 %
15.04.2018 05:18 12,1 C 11,1 C 10,6 C 96 % 15 lf 1014,1 hPa 0,2 l/m 0 min 2 min 0 W/m 6,8 km/h (2 Bft) 93,48 %
15.04.2018 05:20 12,1 C 11,1 C 10,6 C 96 % 15 lf 1014,0 hPa 0,0 l/m 0 min 2 min 0 W/m 9,0 km/h (2 Bft) 95,74 %
15.04.2018 05:22 12,1 C 11,1 C 10,6 C 96 % 15 lf 1014,0 hPa 0,0 l/m 0 min 2 min 0 W/m 6,8 km/h (2 Bft) 93,62 %
15.04.2018 05:24 12,1 C 11,1 C 10,6 C 96 % 15 lf 1014,0 hPa 0,0 l/m 0 min 2 min 0 W/m 13,5 km/h (3 Bft) 95,74 %
15.04.2018 05:26 12,1 C 11,1 C 10,6 C 96 % 15 lf 1014,0 hPa 0,0 l/m 0 min 2 min 0 W/m 9,0 km/h (2 Bft) 95,74 %
15.04.2018 05:28 12,1 C 11,1 C 10,6 C 96 % 15 lf 1014,0 hPa 0,0 l/m 0 min 2 min 0 W/m 9,0 km/h (2 Bft) 95,74 %
15.04.2018 05:30 12,1 C 11,1 C 10,6 C 96 % 15 lf 1014,0 hPa 0,2 l/m 0 min 2 min 0 W/m 11,3 km/h (2 Bft) 95,65 %
15.04.2018 05:32 12,0 C 11,1 C 10,6 C 96 % 15 lf 1014,0 hPa 0,0 l/m 0 min 2 min 0 W/m 9,0 km/h (2 Bft) 93,62 %
15.04.2018 05:34 12,0 C 11,1 C 10,0 C 96 % 15 lf 1014,0 hPa 0,0 l/m 0 min 2 min 0 W/m 9,0 km/h (2 Bft) 91,49 %
15.04.2018 05:35 12,0 C 11,1 C 10,0 C 96 % 15 lf 1014,0 hPa 0,0 l/m 0 min 1 min 0 W/m 13,5 km/h (3 Bft) 96,49 %
15.04.2018 05:43 11,9 C 11,1 C 10,0 C 96 % 15 lf 1014,0 hPa 0,0 l/m 0 min 5 min 0 W/m 6,8 km/h (2 Bft) 96,55 %
15.04.2018 05:44 11,9 C 11,1 C 10,0 C 96 % 15 lf 1014,0 hPa 0,0 l/m 0 min 1 min 0 W/m 11,3 km/h (2 Bft) 91,67 %
15.04.2018 05:46 11,9 C 11,1 C 10,0 C 96 % 15 lf 1014,0 hPa 0,0 l/m 0 min 2 min 0 W/m 6,8 km/h (2 Bft) 95,74 %
15.04.2018 05:48 11,8 C 11,1 C 10,0 C 96 % 15 lf 1014,0 hPa 0,0 l/m 0 min 2 min 0 W/m 13,5 km/h (3 Bft) 95,65 %
15.04.2018 05:50 11,8 C 11,1 C 10,0 C 96 % 15 lf 1014,0 hPa 0,0 l/m 0 min 2 min 0 W/m 6,8 km/h (2 Bft) 93,62 %
15.04.2018 05:52 11,8 C 11,1 C 10,0 C 96 % 15 lf 1013,9 hPa 0,2 l/m 0 min 2 min 0 W/m 6,8 km/h (2 Bft) 95,74 %
15.04.2018 05:54 11,8 C 11,1 C 10,0 C 97 % 15 lf 1013,9 hPa 0,0 l/m 0 min 2 min 0 W/m 9,0 km/h (2 Bft) 95,74 %
15.04.2018 05:56 11,8 C 11,1 C 10,0 C 97 % 15 lf 1013,9 hPa 0,0 l/m 0 min 2 min 0 W/m 9,0 km/h (2 Bft) 93,62 %
15.04.2018 05:58 11,8 C 11,1 C 10,0 C 97 % 15 lf 1013,9 hPa 0,0 l/m 0 min 2 min 0 W/m 4,5 km/h (1 Bft) 97,87 %
15.04.2018 06:00 11,8 C 11,1 C 10,0 C 97 % 15 lf 1013,9 hPa 0,0 l/m 0 min 2 min 0 W/m 6,8 km/h (2 Bft) 95,65 %
15.04.2018 06:02 11,8 C 11,1 C 10,0 C 97 % 15 lf 1013,9 hPa 0,0 l/m 0 min 2 min 0 W/m 6,8 km/h (2 Bft) 97,87 %
15.04.2018 06:04 11,7 C 11,1 C 10,0 C 97 % 15 lf 1013,9 hPa 0,0 l/m 0 min 2 min 0 W/m 6,8 km/h (2 Bft) 97,87 %
15.04.2018 06:08 11,7 C 11,1 C 10,0 C 97 % 15 lf 1013,9 hPa 0,2 l/m 0 min 4 min 0 W/m 13,5 km/h (3 Bft) 96,19 %
15.04.2018 06:10 11,7 C 11,1 C 10,0 C 97 % 15 lf 1013,9 hPa 0,0 l/m 0 min 2 min 0 W/m 9,0 km/h (2 Bft) 97,87 %
15.04.2018 06:12 11,7 C 11,1 C 10,0 C 96 % 15 lf 1013,9 hPa 0,0 l/m 0 min 2 min 0 W/m 6,8 km/h (2 Bft) 95,74 %
15.04.2018 06:14 11,7 C 11,1 C 10,0 C 96 % 15 lf 1013,8 hPa 0,0 l/m 0 min 2 min 0 W/m 4,5 km/h (1 Bft) 97,83 %
15.04.2018 06:16 11,7 C 11,1 C 10,0 C 97 % 15 lf 1013,8 hPa 0,0 l/m 0 min 2 min 0 W/m 9,0 km/h (2 Bft) 97,87 %
15.04.2018 06:18 11,7 C 11,1 C 10,0 C 97 % 15 lf 1013,8 hPa 0,0 l/m 0 min 2 min 0 W/m 9,0 km/h (2 Bft) 97,87 %
15.04.2018 06:20 11,7 C 11,1 C 10,0 C 97 % 15 lf 1013,8 hPa 0,0 l/m 0 min 2 min 0 W/m 9,0 km/h (2 Bft) 95,74 %
15.04.2018 06:22 11,7 C 11,1 C 10,0 C 97 % 15 lf 1013,8 hPa 0,0 l/m 0 min 2 min 0 W/m 9,0 km/h (2 Bft) 95,74 %
15.04.2018 06:24 11,7 C 11,1 C 10,0 C 97 % 15 lf 1013,8 hPa 0,0 l/m 0 min 2 min 0 W/m 9,0 km/h (2 Bft) 97,83 %
15.04.2018 06:26 11,7 C 11,1 C 10,0 C 97 % 15 lf 1013,8 hPa 0,2 l/m 0 min 2 min 0 W/m 11,3 km/h (2 Bft) 97,87 %
15.04.2018 06:28 11,7 C 10,6 C 10,0 C 97 % 15 lf 1013,7 hPa 0,0 l/m 0 min 2 min 0 W/m 13,5 km/h (3 Bft) 97,87 %
15.04.2018 06:30 11,7 C 10,6 C 10,0 C 97 % 15 lf 1013,7 hPa 0,0 l/m 0 min 2 min 0 W/m 9,0 km/h (2 Bft) 95,74 %
15.04.2018 06:32 11,7 C 10,6 C 10,0 C 97 % 15 lf 1013,7 hPa 0,0 l/m 0 min 2 min 0 W/m 11,3 km/h (2 Bft) 95,74 %
15.04.2018 06:34 11,7 C 10,6 C 10,0 C 97 % 15 lf 1013,7 hPa 0,0 l/m 0 min 2 min 0 W/m 4,5 km/h (1 Bft) 97,87 %
15.04.2018 06:36 11,7 C 10,6 C 10,0 C 97 % 15 lf 1013,6 hPa 0,2 l/m 0 min 2 min 0 W/m 6,8 km/h (2 Bft) 97,83 %
15.04.2018 06:38 11,7 C 10,6 C 10,0 C 97 % 15 lf 1013,7 hPa 0,0 l/m 0 min 2 min 0 W/m 6,8 km/h (2 Bft) 93,62 %
15.04.2018 06:40 11,7 C 10,6 C 10,0 C 97 % 15 lf 1013,7 hPa 0,0 l/m 0 min 2 min 0 W/m 9,0 km/h (2 Bft) 97,87 %
15.04.2018 06:42 11,6 C 10,6 C 10,0 C 97 % 15 lf 1013,7 hPa 0,0 l/m 0 min 2 min 0 W/m 6,8 km/h (2 Bft) 97,87 %
15.04.2018 06:44 11,6 C 10,6 C 10,0 C 97 % 15 lf 1013,7 hPa 0,0 l/m 0 min 2 min 0 W/m 6,8 km/h (2 Bft) 95,74 %
15.04.2018 06:46 11,6 C 10,6 C 10,0 C 97 % 15 lf 1013,7 hPa 0,0 l/m 0 min 2 min 0 W/m 6,8 km/h (2 Bft) 95,74 %
15.04.2018 06:48 11,6 C 10,6 C 10,0 C 97 % 15 lf 1013,6 hPa 0,0 l/m 0 min 2 min 0 W/m 9,0 km/h (2 Bft) 97,83 %
15.04.2018 06:50 11,6 C 10,6 C 10,0 C 97 % 15 lf 1013,6 hPa 0,0 l/m 0 min 2 min 0 W/m 9,0 km/h (2 Bft) 95,74 %
15.04.2018 06:52 11,6 C 10,6 C 10,0 C 97 % 15 lf 1013,6 hPa 0,0 l/m 0 min 2 min 0 W/m 9,0 km/h (2 Bft) 93,62 %
15.04.2018 06:54 11,6 C 10,6 C 10,0 C 97 % 15 lf 1013,6 hPa 0,0 l/m 0 min 2 min 0 W/m 6,8 km/h (2 Bft) 95,74 %
15.04.2018 06:56 11,6 C 10,6 C 10,0 C 97 % 15 lf 1013,6 hPa 0,0 l/m 0 min 2 min 4 W/m 6,8 km/h (2 Bft) 97,87 %
15.04.2018 06:58 11,6 C 10,6 C 10,0 C 97 % 15 lf 1013,6 hPa 0,0 l/m 0 min 2 min 5 W/m 11,3 km/h (2 Bft) 97,87 %
15.04.2018 07:00 11,6 C 10,6 C 10,0 C 97 % 15 lf 1013,6 hPa 0,0 l/m 0 min 2 min 5 W/m 9,0 km/h (2 Bft) 95,65 %
15.04.2018 07:02 11,6 C 10,6 C 10,0 C 97 % 15 lf 1013,6 hPa 0,0 l/m 0 min 2 min 7 W/m 11,3 km/h (2 Bft) 93,75 %
15.04.2018 07:04 11,6 C 10,6 C 10,0 C 97 % 15 lf 1013,6 hPa 0,0 l/m 0 min 2 min 7 W/m 11,3 km/h (2 Bft) 93,62 %
15.04.2018 07:06 11,6 C 10,6 C 10,0 C 97 % 15 lf 1013,6 hPa 0,0 l/m 0 min 2 min 7 W/m 6,8 km/h (2 Bft) 93,62 %
15.04.2018 07:08 11,6 C 10,6 C 10,0 C 97 % 15 lf 1013,6 hPa 0,0 l/m 0 min 2 min 9 W/m 9,0 km/h (2 Bft) 93,48 %
15.04.2018 07:10 11,6 C 10,6 C 10,0 C 97 % 15 lf 1013,6 hPa 0,0 l/m 0 min 2 min 9 W/m 9,0 km/h (2 Bft) 97,83 %
15.04.2018 07:12 11,5 C 10,6 C 10,0 C 97 % 15 lf 1013,6 hPa 0,0 l/m 0 min 0 min 10 W/m 6,8 km/h (2 Bft) 95,74 %
15.04.2018 07:14 11,5 C 10,6 C 10,0 C 97 % 15 lf 1013,5 hPa 0,0 l/m 0 min 2 min 11 W/m 6,8 km/h (2 Bft) 95,74 %
15.04.2018 07:16 11,5 C 10,6 C 10,0 C 97 % 15 lf 1013,5 hPa 0,0 l/m 0 min 2 min 13 W/m 9,0 km/h (2 Bft) 95,74 %
15.04.2018 07:18 11,5 C 10,6 C 10,0 C 97 % 15 lf 1013,5 hPa 0,0 l/m 0 min 2 min 16 W/m 9,0 km/h (2 Bft) 95,74 %
15.04.2018 07:20 11,5 C 10,6 C 10,0 C 97 % 15 lf 1013,5 hPa 0,0 l/m 0 min 2 min 18 W/m 9,0 km/h (2 Bft) 95,74 %
15.04.2018 07:22 11,5 C 10,6 C 10,0 C 97 % 15 lf 1013,4 hPa 0,0 l/m 0 min 2 min 22 W/m 9,0 km/h (2 Bft) 95,74 %
15.04.2018 07:24 11,5 C 11,1 C 10,0 C 97 % 15 lf 1013,4 hPa 0,0 l/m 0 min 2 min 24 W/m 6,8 km/h (2 Bft) 95,65 %
15.04.2018 07:26 11,5 C 11,1 C 10,0 C 97 % 15 lf 1013,5 hPa 0,0 l/m 0 min 2 min 27 W/m 9,0 km/h (2 Bft) 93,62 %
15.04.2018 07:28 11,5 C 11,1 C 10,0 C 97 % 15 lf 1013,4 hPa 0,0 l/m 0 min 0 min 29 W/m 9,0 km/h (2 Bft) 93,62 %
15.04.2018 07:30 11,5 C 11,1 C 10,0 C 97 % 15 lf 1013,4 hPa 0,0 l/m 0 min 0 min 31 W/m 11,3 km/h (2 Bft) 89,36 %
15.04.2018 07:32 11,5 C 11,1 C 10,0 C 97 % 15 lf 1013,5 hPa 0,0 l/m 0 min 0 min 32 W/m 13,5 km/h (3 Bft) 93,62 %
15.04.2018 07:34 11,5 C 11,1 C 10,0 C 97 % 15 lf 1013,5 hPa 0,0 l/m 0 min 0 min 30 W/m 11,3 km/h (2 Bft) 95,65 %
15.04.2018 07:36 11,5 C 11,1 C 10,0 C 97 % 15 lf 1013,5 hPa 0,0 l/m 0 min 0 min 28 W/m 9,0 km/h (2 Bft) 97,87 %
15.04.2018 07:38 11,5 C 11,1 C 10,0 C 97 % 15 lf 1013,5 hPa 0,0 l/m 0 min 2 min 29 W/m 9,0 km/h (2 Bft) 100,00 %
15.04.2018 07:40 11,5 C 11,1 C 10,0 C 97 % 15 lf 1013,5 hPa 0,0 l/m 0 min 0 min 30 W/m 9,0 km/h (2 Bft) 97,87 %
15.04.2018 07:42 11,5 C 11,1 C 10,0 C 97 % 15 lf 1013,5 hPa 0,0 l/m 0 min 0 min 31 W/m 11,3 km/h (2 Bft) 100,00 %
15.04.2018 07:44 11,5 C 11,1 C 10,0 C 97 % 15 lf 1013,4 hPa 0,0 l/m 0 min 0 min 32 W/m 9,0 km/h (2 Bft) 100,00 %
15.04.2018 07:46 11,5 C 11,1 C 10,0 C 98 % 15 lf 1013,4 hPa 0,0 l/m 0 min 0 min 32 W/m 11,3 km/h (2 Bft) 100,00 %
15.04.2018 07:48 11,5 C 11,1 C 10,0 C 98 % 15 lf 1013,5 hPa 0,0 l/m 0 min 0 min 28 W/m 9,0 km/h (2 Bft) 97,87 %
15.04.2018 07:50 11,6 C 11,1 C 10,0 C 98 % 15 lf 1013,5 hPa 0,0 l/m 0 min 0 min 25 W/m 9,0 km/h (2 Bft) 100,00 %
15.04.2018 07:52 11,5 C 11,1 C 10,0 C 98 % 15 lf 1013,5 hPa 0,0 l/m 0 min 0 min 24 W/m 6,8 km/h (2 Bft) 100,00 %
15.04.2018 07:54 11,5 C 11,1 C 10,0 C 98 % 15 lf 1013,5 hPa 0,0 l/m 0 min 0 min 26 W/m 9,0 km/h (2 Bft) 97,87 %
15.04.2018 07:56 11,5 C 11,1 C 10,0 C 98 % 15 lf 1013,5 hPa 0,0 l/m 0 min 0 min 26 W/m 6,8 km/h (2 Bft) 97,87 %
15.04.2018 07:58 11,5 C 11,1 C 10,0 C 97 % 15 lf 1013,5 hPa 0,0 l/m 0 min 0 min 26 W/m 9,0 km/h (2 Bft) 97,83 %
15.04.2018 08:00 11,5 C 11,1 C 10,0 C 97 % 15 lf 1013,4 hPa 0,0 l/m 0 min 0 min 26 W/m 11,3 km/h (2 Bft) 97,87 %
15.04.2018 08:02 11,5 C 11,1 C 10,0 C 97 % 15 lf 1013,4 hPa 0,0 l/m 0 min 0 min 29 W/m 6,8 km/h (2 Bft) 89,36 %
15.04.2018 08:04 11,5 C 11,1 C 10,0 C 97 % 15 lf 1013,4 hPa 0,0 l/m 0 min 0 min 30 W/m 9,0 km/h (2 Bft) 97,87 %
15.04.2018 08:06 11,5 C 11,1 C 10,0 C 97 % 15 lf 1013,4 hPa 0,0 l/m 0 min 0 min 30 W/m 9,0 km/h (2 Bft) 97,87 %
15.04.2018 08:08 11,5 C 11,1 C 10,0 C 97 % 15 lf 1013,3 hPa 0,0 l/m 0 min 0 min 32 W/m 11,3 km/h (2 Bft) 95,74 %
15.04.2018 08:10 11,5 C 11,1 C 10,0 C 98 % 15 lf 1013,3 hPa 0,0 l/m 0 min 0 min 35 W/m 11,3 km/h (2 Bft) 93,48 %
15.04.2018 08:12 11,5 C 11,1 C 10,0 C 98 % 15 lf 1013,2 hPa 0,0 l/m 0 min 0 min 35 W/m 9,0 km/h (2 Bft) 97,87 %
15.04.2018 08:14 11,5 C 11,1 C 10,0 C 98 % 15 lf 1013,1 hPa 0,0 l/m 0 min 0 min 38 W/m 9,0 km/h (2 Bft) 97,87 %
15.04.2018 08:16 11,5 C 11,1 C 10,0 C 98 % 15 lf 1013,0 hPa 0,0 l/m 0 min 0 min 40 W/m 9,0 km/h (2 Bft) 97,87 %
15.04.2018 08:18 11,5 C 11,1 C 10,6 C 98 % 15 lf 1013,0 hPa 0,0 l/m 0 min 0 min 51 W/m 9,0 km/h (2 Bft) 95,74 %
15.04.2018 08:20 11,5 C 11,7 C 10,6 C 98 % 15 lf 1013,0 hPa 0,0 l/m 0 min 0 min 81 W/m 9,0 km/h (2 Bft) 93,62 %
15.04.2018 08:22 11,6 C 11,7 C 10,6 C 98 % 15 lf 1013,0 hPa 0,0 l/m 0 min 0 min 114 W/m 9,0 km/h (2 Bft) 95,65 %
15.04.2018 08:24 11,6 C 11,7 C 11,1 C 98 % 15 lf 1013,0 hPa 0,0 l/m 0 min 0 min 129 W/m 6,8 km/h (2 Bft) 97,87 %
15.04.2018 08:26 11,6 C 11,7 C 11,1 C 98 % 15 lf 1013,0 hPa 0,0 l/m 2 min 0 min 148 W/m 9,0 km/h (2 Bft) 93,62 %
15.04.2018 08:28 11,6 C 12,2 C 11,1 C 98 % 15 lf 1013,0 hPa 0,0 l/m 2 min 0 min 180 W/m 11,3 km/h (2 Bft) 97,87 %
15.04.2018 08:30 11,7 C 12,2 C 11,7 C 98 % 15 lf 1012,9 hPa 0,0 l/m 2 min 0 min 265 W/m 11,3 km/h (2 Bft) 97,87 %
15.04.2018 08:32 11,7 C 12,2 C 11,7 C 98 % 15 lf 1012,9 hPa 0,0 l/m 2 min 0 min 313 W/m 11,3 km/h (2 Bft) 95,74 %
15.04.2018 08:34 11,8 C 12,2 C 11,7 C 98 % 15 lf 1012,8 hPa 0,0 l/m 2 min 0 min 306 W/m 11,3 km/h (2 Bft) 97,83 %
15.04.2018 08:36 11,8 C 12,8 C 11,7 C 98 % 15 lf 1012,8 hPa 0,0 l/m 2 min 0 min 187 W/m 9,0 km/h (2 Bft) 97,87 %
15.04.2018 08:38 11,9 C 12,2 C 11,7 C 98 % 15 lf 1012,9 hPa 0,0 l/m 2 min 0 min 162 W/m 11,3 km/h (2 Bft) 97,87 %
15.04.2018 08:40 11,9 C 12,8 C 11,1 C 98 % 15 lf 1012,9 hPa 0,0 l/m 0 min 0 min 143 W/m 11,3 km/h (2 Bft) 100,00 %
15.04.2018 08:42 12,0 C 12,8 C 11,1 C 98 % 15 lf 1012,8 hPa 0,0 l/m 2 min 0 min 155 W/m 9,0 km/h (2 Bft) 95,74 %
15.04.2018 08:44 12,1 C 12,2 C 11,1 C 98 % 15 lf 1012,8 hPa 0,0 l/m 0 min 0 min 136 W/m 6,8 km/h (2 Bft) 100,00 %
15.04.2018 08:46 12,1 C 12,2 C 11,1 C 98 % 15 lf 1012,8 hPa 0,0 l/m 0 min 0 min 131 W/m 11,3 km/h (2 Bft) 97,83 %
15.04.2018 08:48 12,1 C 12,2 C 10,6 C 98 % 15 lf 1012,9 hPa 0,0 l/m 0 min 0 min 93 W/m 13,5 km/h (3 Bft) 97,87 %
15.04.2018 08:50 12,1 C 12,2 C 10,6 C 98 % 15 lf 1012,8 hPa 0,0 l/m 0 min 0 min 112 W/m 13,5 km/h (3 Bft) 93,62 %
15.04.2018 08:52 12,1 C 11,7 C 10,6 C 98 % 15 lf 1012,8 hPa 0,0 l/m 0 min 0 min 79 W/m 13,5 km/h (3 Bft) 97,87 %
15.04.2018 08:54 12,1 C 11,7 C 10,6 C 98 % 15 lf 1012,8 hPa 0,0 l/m 0 min 0 min 77 W/m 9,0 km/h (2 Bft) 100,00 %
15.04.2018 08:56 12,1 C 12,8 C 10,6 C 98 % 15 lf 1012,9 hPa 0,0 l/m 0 min 0 min 109 W/m 9,0 km/h (2 Bft) 95,74 %
15.04.2018 08:58 12,0 C 14,4 C 10,6 C 98 % 15 lf 1012,8 hPa 0,0 l/m 2 min 0 min 237 W/m 11,3 km/h (2 Bft) 97,83 %
15.04.2018 09:00 12,1 C 14,4 C 10,6 C 98 % 15 lf 1012,8 hPa 0,0 l/m 2 min 0 min 240 W/m 9,0 km/h (2 Bft) 97,87 %
15.04.2018 09:02 12,1 C 13,9 C 10,6 C 98 % 15 lf 1012,8 hPa 0,0 l/m 0 min 0 min 134 W/m 6,8 km/h (2 Bft) 97,87 %
15.04.2018 09:04 12,2 C 15,0 C 11,1 C 98 % 15 lf 1012,8 hPa 0,0 l/m 0 min 0 min 139 W/m 6,8 km/h (2 Bft) 97,87 %
15.04.2018 09:06 12,2 C 15,6 C 11,1 C 98 % 15 lf 1012,7 hPa 0,0 l/m 2 min 0 min 269 W/m 13,5 km/h (3 Bft) 95,74 %
15.04.2018 09:08 12,3 C 16,1 C 11,1 C 98 % 15 lf 1012,7 hPa 0,0 l/m 2 min 0 min 325 W/m 9,0 km/h (2 Bft) 97,83 %
15.04.2018 09:10 12,4 C 16,7 C 11,1 C 98 % 15 lf 1012,7 hPa 0,0 l/m 2 min 0 min 358 W/m 9,0 km/h (2 Bft) 97,87 %
15.04.2018 09:12 12,5 C 16,7 C 11,7 C 99 % 15 lf 1012,5 hPa 0,0 l/m 2 min 0 min 366 W/m 15,8 km/h (3 Bft) 91,49 %
15.04.2018 09:14 12,6 C 17,2 C 11,7 C 98 % 15 lf 1012,5 hPa 0,0 l/m 2 min 0 min 383 W/m 18,0 km/h (3 Bft) 95,74 %
15.04.2018 09:16 12,7 C 16,7 C 12,2 C 98 % 15 lf 1012,5 hPa 0,0 l/m 2 min 0 min 384 W/m 13,5 km/h (3 Bft) 95,74 %
15.04.2018 09:18 12,8 C 18,3 C 12,2 C 98 % 15 lf 1012,6 hPa 0,0 l/m 2 min 0 min 379 W/m 11,3 km/h (2 Bft) 95,74 %
15.04.2018 09:20 12,8 C 18,9 C 12,2 C 99 % 15 lf 1012,5 hPa 0,0 l/m 2 min 0 min 386 W/m 9,0 km/h (2 Bft) 95,65 %
15.04.2018 09:22 12,9 C 18,9 C 12,2 C 99 % 15 lf 1012,6 hPa 0,0 l/m 2 min 0 min 381 W/m 11,3 km/h (2 Bft) 93,62 %
15.04.2018 09:24 13,0 C 18,9 C 12,2 C 99 % 15 lf 1012,6 hPa 0,0 l/m 2 min 0 min 412 W/m 15,8 km/h (3 Bft) 95,74 %
15.04.2018 09:26 13,1 C 20,0 C 12,2 C 99 % 15 lf 1012,5 hPa 0,0 l/m 2 min 0 min 423 W/m 11,3 km/h (2 Bft) 95,45 %
15.04.2018 09:28 13,1 C 20,6 C 12,2 C 99 % 15 lf 1012,5 hPa 0,0 l/m 2 min 0 min 450 W/m 11,3 km/h (2 Bft) 93,48 %
15.04.2018 09:30 13,2 C 18,9 C 12,2 C 99 % 14 lf 1012,6 hPa 0,0 l/m 2 min 0 min 469 W/m 27,0 km/h (4 Bft) 95,74 %
15.04.2018 09:32 13,2 C 17,2 C 12,2 C 99 % 14 lf 1012,6 hPa 0,0 l/m 2 min 0 min 286 W/m 20,3 km/h (4 Bft) 93,62 %
15.04.2018 09:34 13,2 C 18,3 C 12,2 C 99 % 13 lf 1012,5 hPa 0,0 l/m 2 min 0 min 428 W/m 20,3 km/h (4 Bft) 95,74 %
15.04.2018 09:38 13,2 C 18,3 C 12,8 C 99 % 10 lf 1012,5 hPa 0,0 l/m 4 min 0 min 511 W/m 20,3 km/h (4 Bft) 94,68 %
15.04.2018 09:40 13,3 C 19,4 C 12,8 C 99 % 9 lf 1012,5 hPa 0,0 l/m 2 min 0 min 533 W/m 15,8 km/h (3 Bft) 95,65 %
15.04.2018 09:42 13,3 C 20,6 C 12,8 C 98 % 5 lf 1012,5 hPa 0,0 l/m 2 min 0 min 548 W/m 13,5 km/h (3 Bft) 95,74 %
15.04.2018 09:44 13,4 C 19,4 C 13,3 C 98 % 4 lf 1012,5 hPa 0,0 l/m 2 min 0 min 469 W/m 15,8 km/h (3 Bft) 93,62 %
15.04.2018 09:46 13,5 C 18,3 C 13,3 C 98 % 3 lf 1012,5 hPa 0,0 l/m 2 min 0 min 340 W/m 15,8 km/h (3 Bft) 91,49 %
15.04.2018 09:48 13,5 C 17,2 C 12,8 C 98 % 3 lf 1012,5 hPa 0,0 l/m 2 min 0 min 248 W/m 18,0 km/h (3 Bft) 93,62 %
15.04.2018 09:50 13,6 C 18,9 C 13,3 C 98 % 2 lf 1012,5 hPa 0,0 l/m 2 min 0 min 336 W/m 20,3 km/h (4 Bft) 95,74 %
15.04.2018 09:52 13,6 C 19,4 C 13,3 C 98 % 1 lf 1012,4 hPa 0,0 l/m 2 min 0 min 432 W/m 18,0 km/h (3 Bft) 91,30 %
15.04.2018 09:54 13,7 C 19,4 C 13,9 C 98 % 1 lf 1012,4 hPa 0,0 l/m 2 min 0 min 375 W/m 15,8 km/h (3 Bft) 95,74 %
15.04.2018 09:56 13,7 C 20,0 C 14,4 C 98 % 0 lf 1012,4 hPa 0,0 l/m 2 min 0 min 482 W/m 18,0 km/h (3 Bft) 95,74 %
15.04.2018 09:58 13,8 C 19,4 C 15,0 C 98 % 0 lf 1012,4 hPa 0,0 l/m 2 min 0 min 580 W/m 20,3 km/h (4 Bft) 95,74 %
15.04.2018 10:00 13,8 C 17,8 C 14,4 C 98 % 0 lf 1012,3 hPa 0,0 l/m 2 min 0 min 440 W/m 18,0 km/h (3 Bft) 93,62 %
15.04.2018 10:02 13,9 C 16,7 C 13,9 C 97 % 0 lf 1012,3 hPa 0,0 l/m 2 min 0 min 257 W/m 20,3 km/h (4 Bft) 91,67 %
15.04.2018 10:04 13,9 C 16,1 C 13,3 C 97 % 0 lf 1012,3 hPa 0,0 l/m 0 min 0 min 232 W/m 15,8 km/h (3 Bft) 95,65 %
15.04.2018 10:06 13,9 C 16,1 C 13,3 C 96 % 0 lf 1012,3 hPa 0,0 l/m 0 min 0 min 215 W/m 9,0 km/h (2 Bft) 95,74 %
15.04.2018 10:08 13,9 C 16,1 C 13,9 C 95 % 0 lf 1012,3 hPa 0,0 l/m 2 min 0 min 284 W/m 15,8 km/h (3 Bft) 95,74 %
15.04.2018 10:10 14,0 C 18,3 C 15,0 C 95 % 0 lf 1012,3 hPa 0,0 l/m 2 min 0 min 419 W/m 18,0 km/h (3 Bft) 97,87 %
15.04.2018 10:12 14,2 C 20,6 C 16,1 C 95 % 0 lf 1012,3 hPa 0,0 l/m 2 min 0 min 548 W/m 15,8 km/h (3 Bft) 93,62 %
15.04.2018 10:14 14,2 C 21,1 C 16,1 C 94 % 0 lf 1012,3 hPa 0,0 l/m 2 min 0 min 540 W/m 20,3 km/h (4 Bft) 97,87 %
15.04.2018 10:16 14,2 C 21,1 C 16,7 C 94 % 0 lf 1012,2 hPa 0,0 l/m 2 min 0 min 546 W/m 13,5 km/h (3 Bft) 95,65 %
15.04.2018 10:18 14,3 C 21,7 C 16,7 C 93 % 0 lf 1012,2 hPa 0,0 l/m 2 min 0 min 554 W/m 20,3 km/h (4 Bft) 95,74 %
15.04.2018 10:20 14,4 C 22,8 C 16,1 C 93 % 0 lf 1012,2 hPa 0,0 l/m 2 min 0 min 560 W/m 15,8 km/h (3 Bft) 97,87 %
15.04.2018 10:22 14,5 C 23,3 C 16,1 C 92 % 0 lf 1012,2 hPa 0,0 l/m 2 min 0 min 556 W/m 20,3 km/h (4 Bft) 95,74 %
15.04.2018 10:24 14,7 C 22,8 C 16,7 C 91 % 0 lf 1012,1 hPa 0,0 l/m 2 min 0 min 565 W/m 15,8 km/h (3 Bft) 97,87 %
15.04.2018 10:26 14,8 C 21,7 C 17,8 C 91 % 0 lf 1012,1 hPa 0,0 l/m 2 min 0 min 574 W/m 15,8 km/h (3 Bft) 95,65 %
15.04.2018 10:28 14,9 C 23,3 C 17,8 C 90 % 0 lf 1012,1 hPa 0,0 l/m 2 min 0 min 576 W/m 11,3 km/h (2 Bft) 97,87 %
15.04.2018 10:30 15,1 C 23,9 C 17,8 C 90 % 0 lf 1012,1 hPa 0,0 l/m 2 min 0 min 585 W/m 11,3 km/h (2 Bft) 93,62 %
15.04.2018 10:32 15,2 C 24,4 C 17,8 C 89 % 0 lf 1012,0 hPa 0,0 l/m 2 min 0 min 596 W/m 20,3 km/h (4 Bft) 93,75 %
15.04.2018 10:34 15,3 C 24,4 C 17,8 C 89 % 0 lf 1012,1 hPa 0,0 l/m 2 min 0 min 588 W/m 22,5 km/h (4 Bft) 95,74 %
15.04.2018 10:36 15,4 C 22,8 C 17,8 C 88 % 0 lf 1012,1 hPa 0,0 l/m 2 min 0 min 594 W/m 18,0 km/h (3 Bft) 93,62 %
15.04.2018 10:38 15,6 C 22,2 C 17,2 C 86 % 0 lf 1012,1 hPa 0,0 l/m 2 min 0 min 599 W/m 11,3 km/h (2 Bft) 97,83 %
15.04.2018 10:40 15,7 C 22,2 C 17,8 C 85 % 0 lf 1012,1 hPa 0,0 l/m 2 min 0 min 604 W/m 22,5 km/h (4 Bft) 97,87 %
15.04.2018 10:42 15,8 C 21,7 C 17,2 C 85 % 0 lf 1012,1 hPa 0,0 l/m 2 min 0 min 604 W/m 18,0 km/h (3 Bft) 95,24 %
15.04.2018 10:44 15,9 C 21,1 C 17,8 C 83 % 0 lf 1012,0 hPa 0,0 l/m 2 min 0 min 607 W/m 22,5 km/h (4 Bft) 97,83 %
15.04.2018 10:46 15,9 C 21,1 C 17,2 C 82 % 0 lf 1012,0 hPa 0,0 l/m 2 min 0 min 611 W/m 22,5 km/h (4 Bft) 95,74 %
15.04.2018 10:48 16,1 C 20,6 C 17,2 C 82 % 0 lf 1012,0 hPa 0,0 l/m 2 min 0 min 616 W/m 22,5 km/h (4 Bft) 95,74 %
15.04.2018 10:50 16,1 C 21,7 C 17,8 C 82 % 0 lf 1011,9 hPa 0,0 l/m 2 min 0 min 617 W/m 15,8 km/h (3 Bft) 97,87 %
15.04.2018 10:52 16,2 C 23,9 C 18,3 C 82 % 0 lf 1011,9 hPa 0,0 l/m 2 min 0 min 622 W/m 20,3 km/h (4 Bft) 95,74 %
15.04.2018 10:54 16,3 C 22,8 C 17,8 C 83 % 0 lf 1011,9 hPa 0,0 l/m 2 min 0 min 628 W/m 20,3 km/h (4 Bft) 93,62 %
15.04.2018 10:56 16,4 C 22,2 C 17,2 C 82 % 0 lf 1011,9 hPa 0,0 l/m 2 min 0 min 638 W/m 15,8 km/h (3 Bft) 97,83 %
15.04.2018 10:58 16,4 C 21,7 C 16,7 C 82 % 0 lf 1011,8 hPa 0,0 l/m 2 min 0 min 656 W/m 15,8 km/h (3 Bft) 97,87 %
15.04.2018 11:00 16,5 C 22,2 C 16,1 C 82 % 0 lf 1011,8 hPa 0,0 l/m 2 min 0 min 687 W/m 15,8 km/h (3 Bft) 97,87 %
15.04.2018 11:02 16,6 C 22,2 C 16,1 C 81 % 0 lf 1011,8 hPa 0,0 l/m 2 min 0 min 649 W/m 13,5 km/h (3 Bft) 95,74 %
15.04.2018 11:04 16,6 C 22,2 C 15,6 C 81 % 0 lf 1011,8 hPa 0,0 l/m 2 min 0 min 722 W/m 20,3 km/h (4 Bft) 97,87 %
15.04.2018 11:06 16,7 C 22,2 C 16,1 C 80 % 0 lf 1011,8 hPa 0,0 l/m 2 min 0 min 675 W/m 11,3 km/h (2 Bft) 95,74 %
15.04.2018 11:08 16,8 C 23,3 C 16,7 C 81 % 0 lf 1011,9 hPa 0,0 l/m 2 min 0 min 698 W/m 24,8 km/h (4 Bft) 95,65 %
15.04.2018 11:10 16,9 C 25,0 C 18,3 C 81 % 0 lf 1011,8 hPa 0,0 l/m 2 min 0 min 696 W/m 18,0 km/h (3 Bft) 95,74 %
15.04.2018 11:12 17,0 C 26,1 C 19,4 C 81 % 0 lf 1011,9 hPa 0,0 l/m 2 min 0 min 686 W/m 20,3 km/h (4 Bft) 100,00 %
15.04.2018 11:14 17,1 C 23,9 C 21,1 C 79 % 0 lf 1011,9 hPa 0,0 l/m 2 min 0 min 711 W/m 22,5 km/h (4 Bft) 97,87 %
15.04.2018 11:16 17,1 C 23,9 C 21,7 C 78 % 0 lf 1011,9 hPa 0,0 l/m 2 min 0 min 697 W/m 13,5 km/h (3 Bft) 100,00 %
15.04.2018 11:18 17,2 C 25,0 C 22,2 C 78 % 0 lf 1011,9 hPa 0,0 l/m 2 min 0 min 694 W/m 18,0 km/h (3 Bft) 100,00 %
15.04.2018 11:20 17,3 C 24,4 C 21,7 C 78 % 0 lf 1011,8 hPa 0,0 l/m 2 min 0 min 706 W/m 15,8 km/h (3 Bft) 100,00 %
15.04.2018 11:22 17,3 C 21,1 C 20,6 C 76 % 0 lf 1011,8 hPa 0,0 l/m 2 min 0 min 645 W/m 20,3 km/h (4 Bft) 95,74 %
15.04.2018 11:24 17,3 C 20,6 C 20,0 C 75 % 0 lf 1011,8 hPa 0,0 l/m 0 min 0 min 201 W/m 11,3 km/h (2 Bft) 97,87 %
15.04.2018 11:26 17,3 C 22,2 C 21,1 C 75 % 0 lf 1011,8 hPa 0,0 l/m 2 min 0 min 634 W/m 18,0 km/h (3 Bft) 100,00 %
15.04.2018 11:28 17,3 C 22,2 C 21,7 C 75 % 0 lf 1011,8 hPa 0,0 l/m 2 min 0 min 715 W/m 20,3 km/h (4 Bft) 93,48 %
15.04.2018 11:30 17,3 C 19,4 C 20,6 C 75 % 0 lf 1011,8 hPa 0,0 l/m 2 min 0 min 587 W/m 20,3 km/h (4 Bft) 97,87 %
15.04.2018 11:32 17,3 C 21,1 C 21,7 C 75 % 0 lf 1011,8 hPa 0,0 l/m 0 min 0 min 246 W/m 22,5 km/h (4 Bft) 100,00 %
15.04.2018 11:34 17,3 C 22,2 C 22,8 C 76 % 0 lf 1011,8 hPa 0,0 l/m 2 min 0 min 338 W/m 15,8 km/h (3 Bft) 100,00 %
15.04.2018 11:36 17,3 C 25,0 C 23,3 C 76 % 0 lf 1011,8 hPa 0,0 l/m 2 min 0 min 656 W/m 18,0 km/h (3 Bft) 97,87 %
15.04.2018 11:38 17,4 C 23,3 C 23,3 C 77 % 0 lf 1011,8 hPa 0,0 l/m 2 min 0 min 751 W/m 18,0 km/h (3 Bft) 97,87 %
15.04.2018 11:40 17,4 C 22,8 C 23,9 C 76 % 0 lf 1011,7 hPa 0,0 l/m 2 min 0 min 757 W/m 18,0 km/h (3 Bft) 97,83 %
15.04.2018 11:42 17,4 C 25,0 C 23,9 C 76 % 0 lf 1011,8 hPa 0,0 l/m 2 min 0 min 786 W/m 18,0 km/h (3 Bft) 100,00 %
15.04.2018 11:44 17,5 C 25,0 C 23,9 C 76 % 0 lf 1011,6 hPa 0,0 l/m 2 min 0 min 758 W/m 15,8 km/h (3 Bft) 97,87 %
15.04.2018 11:46 17,6 C 24,4 C 24,4 C 76 % 0 lf 1011,6 hPa 0,0 l/m 2 min 0 min 753 W/m 15,8 km/h (3 Bft) 97,87 %
15.04.2018 11:48 17,6 C 24,4 C 25,0 C 75 % 0 lf 1011,6 hPa 0,0 l/m 2 min 0 min 777 W/m 20,3 km/h (4 Bft) 97,87 %
15.04.2018 11:50 17,7 C 23,3 C 25,0 C 74 % 0 lf 1011,6 hPa 0,0 l/m 2 min 0 min 815 W/m 24,8 km/h (4 Bft) 95,74 %
15.04.2018 11:52 17,7 C 21,7 C 23,9 C 73 % 0 lf 1011,6 hPa 0,0 l/m 2 min 0 min 816 W/m 18,0 km/h (3 Bft) 100,00 %
15.04.2018 11:54 17,7 C 19,4 C 22,2 C 73 % 0 lf 1011,6 hPa 0,0 l/m 2 min 0 min 621 W/m 20,3 km/h (4 Bft) 97,87 %
15.04.2018 11:56 17,7 C 20,0 C 21,7 C 73 % 0 lf 1011,6 hPa 0,0 l/m 0 min 0 min 192 W/m 15,8 km/h (3 Bft) 95,74 %
15.04.2018 11:58 17,7 C 18,9 C 20,6 C 74 % 0 lf 1011,5 hPa 0,0 l/m 0 min 0 min 200 W/m 18,0 km/h (3 Bft) 97,87 %
15.04.2018 12:00 17,6 C 18,9 C 20,0 C 73 % 0 lf 1011,5 hPa 0,0 l/m 0 min 0 min 227 W/m 15,8 km/h (3 Bft) 97,87 %
15.04.2018 12:02 17,6 C 22,2 C 21,7 C 74 % 0 lf 1011,6 hPa 0,0 l/m 2 min 0 min 779 W/m 20,3 km/h (4 Bft) 93,75 %
15.04.2018 12:04 17,6 C 22,2 C 21,7 C 75 % 0 lf 1011,5 hPa 0,0 l/m 2 min 0 min 817 W/m 20,3 km/h (4 Bft) 97,83 %
15.04.2018 12:08 17,6 C 23,9 C 21,7 C 75 % 0 lf 1011,5 hPa 0,0 l/m 4 min 0 min 420 W/m 18,0 km/h (3 Bft) 97,87 %
15.04.2018 12:10 17,6 C 23,9 C 22,8 C 76 % 0 lf 1011,5 hPa 0,0 l/m 0 min 0 min 344 W/m 15,8 km/h (3 Bft) 97,87 %
15.04.2018 12:12 17,7 C 25,6 C 23,9 C 75 % 0 lf 1011,4 hPa 0,0 l/m 2 min 0 min 817 W/m 15,8 km/h (3 Bft) 100,00 %
15.04.2018 12:14 17,8 C 24,4 C 23,3 C 75 % 0 lf 1011,4 hPa 0,0 l/m 2 min 0 min 819 W/m 18,0 km/h (3 Bft) 97,87 %
15.04.2018 12:16 17,9 C 25,0 C 23,3 C 76 % 0 lf 1011,5 hPa 0,0 l/m 2 min 0 min 809 W/m 13,5 km/h (3 Bft) 96,00 %
15.04.2018 12:18 17,9 C 23,3 C 23,3 C 73 % 0 lf 1011,5 hPa 0,0 l/m 2 min 0 min 804 W/m 13,5 km/h (3 Bft) 91,49 %
15.04.2018 12:20 18,0 C 25,6 C 23,3 C 73 % 0 lf 1011,3 hPa 0,0 l/m 2 min 0 min 808 W/m 15,8 km/h (3 Bft) 95,74 %
15.04.2018 12:22 18,1 C 26,1 C 24,4 C 74 % 0 lf 1011,3 hPa 0,0 l/m 2 min 0 min 839 W/m 6,8 km/h (2 Bft) 93,62 %
15.04.2018 12:24 18,2 C 27,8 C 24,4 C 74 % 0 lf 1011,3 hPa 0,0 l/m 2 min 0 min 767 W/m 22,5 km/h (4 Bft) 93,62 %
15.04.2018 12:26 18,3 C 22,2 C 23,3 C 73 % 0 lf 1011,4 hPa 0,0 l/m 2 min 0 min 685 W/m 22,5 km/h (4 Bft) 97,83 %
15.04.2018 12:28 18,3 C 20,6 C 21,7 C 71 % 0 lf 1011,3 hPa 0,0 l/m 0 min 0 min 172 W/m 13,5 km/h (3 Bft) 97,87 %
15.04.2018 12:30 18,3 C 18,9 C 20,6 C 71 % 0 lf 1011,3 hPa 0,0 l/m 0 min 0 min 187 W/m 18,0 km/h (3 Bft) 97,87 %
15.04.2018 12:32 18,2 C 21,1 C 20,0 C 71 % 0 lf 1011,2 hPa 0,0 l/m 0 min 0 min 233 W/m 13,5 km/h (3 Bft) 93,62 %
15.04.2018 12:34 18,2 C 21,1 C 21,7 C 71 % 0 lf 1011,3 hPa 0,0 l/m 2 min 0 min 627 W/m 15,8 km/h (3 Bft) 95,74 %
15.04.2018 12:36 18,2 C 20,6 C 21,1 C 72 % 0 lf 1011,1 hPa 0,0 l/m 2 min 0 min 823 W/m 15,8 km/h (3 Bft) 97,87 %
15.04.2018 12:38 18,2 C 21,1 C 20,6 C 72 % 0 lf 1011,2 hPa 0,0 l/m 2 min 0 min 366 W/m 15,8 km/h (3 Bft) 97,83 %
15.04.2018 12:40 18,2 C 23,3 C 22,2 C 72 % 0 lf 1011,2 hPa 0,0 l/m 2 min 0 min 694 W/m 13,5 km/h (3 Bft) 97,87 %
15.04.2018 12:42 18,2 C 25,0 C 21,7 C 73 % 0 lf 1011,1 hPa 0,0 l/m 2 min 0 min 877 W/m 6,8 km/h (2 Bft) 100,00 %
15.04.2018 12:44 18,2 C 25,0 C 22,2 C 73 % 0 lf 1011,1 hPa 0,0 l/m 2 min 0 min 874 W/m 11,3 km/h (2 Bft) 95,74 %
15.04.2018 12:46 18,3 C 25,0 C 22,8 C 72 % 0 lf 1011,1 hPa 0,0 l/m 2 min 0 min 845 W/m 13,5 km/h (3 Bft) 97,87 %
15.04.2018 12:48 18,3 C 27,2 C 23,9 C 72 % 0 lf 1011,0 hPa 0,0 l/m 2 min 0 min 842 W/m 11,3 km/h (2 Bft) 97,87 %
15.04.2018 12:50 18,4 C 25,0 C 23,9 C 71 % 0 lf 1011,0 hPa 0,0 l/m 2 min 0 min 930 W/m 20,3 km/h (4 Bft) 93,62 %
15.04.2018 12:52 18,5 C 25,6 C 24,4 C 69 % 0 lf 1011,1 hPa 0,0 l/m 2 min 0 min 930 W/m 20,3 km/h (4 Bft) 95,65 %
15.04.2018 12:54 18,6 C 24,4 C 24,4 C 69 % 0 lf 1011,1 hPa 0,0 l/m 2 min 0 min 973 W/m 15,8 km/h (3 Bft) 95,74 %
15.04.2018 12:56 18,6 C 22,2 C 23,3 C 68 % 0 lf 1011,1 hPa 0,0 l/m 2 min 0 min 979 W/m 18,0 km/h (3 Bft) 97,87 %
15.04.2018 12:58 18,6 C 23,9 C 22,8 C 68 % 0 lf 1011,0 hPa 0,0 l/m 2 min 0 min 390 W/m 9,0 km/h (2 Bft) 97,87 %
15.04.2018 13:00 18,7 C 23,9 C 22,2 C 69 % 0 lf 1011,0 hPa 0,0 l/m 2 min 0 min 390 W/m 13,5 km/h (3 Bft) 95,74 %
15.04.2018 13:02 18,7 C 20,6 C 21,1 C 69 % 0 lf 1011,0 hPa 0,0 l/m 0 min 0 min 256 W/m 20,3 km/h (4 Bft) 95,74 %
15.04.2018 13:04 18,7 C 19,4 C 20,0 C 69 % 0 lf 1011,0 hPa 0,0 l/m 0 min 0 min 228 W/m 15,8 km/h (3 Bft) 95,65 %
15.04.2018 13:06 18,6 C 18,9 C 19,4 C 69 % 0 lf 1010,9 hPa 0,0 l/m 0 min 0 min 223 W/m 13,5 km/h (3 Bft) 95,74 %
15.04.2018 13:08 18,6 C 18,9 C 19,4 C 70 % 0 lf 1011,0 hPa 0,0 l/m 0 min 0 min 240 W/m 15,8 km/h (3 Bft) 97,87 %
15.04.2018 13:10 18,5 C 18,3 C 19,4 C 70 % 0 lf 1011,1 hPa 0,0 l/m 0 min 0 min 221 W/m 20,3 km/h (4 Bft) 95,65 %
15.04.2018 13:12 18,5 C 18,3 C 19,4 C 71 % 0 lf 1011,0 hPa 0,0 l/m 0 min 0 min 190 W/m 15,8 km/h (3 Bft) 93,62 %
15.04.2018 13:14 18,4 C 18,3 C 18,9 C 71 % 0 lf 1011,0 hPa 0,0 l/m 0 min 0 min 169 W/m 15,8 km/h (3 Bft) 95,74 %
15.04.2018 13:16 18,4 C 17,8 C 18,9 C 71 % 0 lf 1011,0 hPa 0,0 l/m 0 min 0 min 155 W/m 15,8 km/h (3 Bft) 93,48 %
15.04.2018 13:18 18,3 C 17,8 C 18,3 C 70 % 0 lf 1011,0 hPa 0,0 l/m 0 min 0 min 155 W/m 13,5 km/h (3 Bft) 95,74 %
15.04.2018 13:20 18,2 C 18,3 C 17,8 C 70 % 0 lf 1011,1 hPa 0,0 l/m 0 min 0 min 172 W/m 9,0 km/h (2 Bft) 95,74 %
15.04.2018 13:22 18,2 C 18,3 C 18,3 C 71 % 0 lf 1011,0 hPa 0,0 l/m 0 min 0 min 186 W/m 11,3 km/h (2 Bft) 93,62 %
15.04.2018 13:24 18,1 C 18,3 C 18,3 C 71 % 0 lf 1011,0 hPa 0,0 l/m 0 min 0 min 207 W/m 9,0 km/h (2 Bft) 91,49 %
15.04.2018 13:26 18,1 C 20,6 C 18,9 C 71 % 0 lf 1011,0 hPa 0,0 l/m 0 min 2 min 262 W/m 9,0 km/h (2 Bft) 93,62 %
15.04.2018 13:28 18,1 C 20,0 C 19,4 C 71 % 0 lf 1010,9 hPa 0,0 l/m 0 min 0 min 317 W/m 6,8 km/h (2 Bft) 93,48 %
15.04.2018 13:30 18,0 C 19,4 C 19,4 C 70 % 0 lf 1010,9 hPa 0,0 l/m 0 min 0 min 311 W/m 9,0 km/h (2 Bft) 95,74 %
15.04.2018 13:32 17,9 C 19,4 C 19,4 C 70 % 0 lf 1011,0 hPa 0,0 l/m 2 min 0 min 376 W/m 22,5 km/h (4 Bft) 93,62 %
15.04.2018 13:34 17,9 C 18,3 C 18,9 C 70 % 0 lf 1011,0 hPa 0,0 l/m 0 min 0 min 248 W/m 18,0 km/h (3 Bft) 95,74 %
15.04.2018 13:36 17,9 C 18,9 C 18,3 C 70 % 0 lf 1011,0 hPa 0,0 l/m 0 min 0 min 169 W/m 9,0 km/h (2 Bft) 93,62 %
15.04.2018 13:38 17,9 C 18,9 C 18,3 C 71 % 0 lf 1010,9 hPa 0,0 l/m 0 min 0 min 140 W/m 6,8 km/h (2 Bft) 93,62 %
15.04.2018 13:40 17,8 C 18,3 C 17,8 C 71 % 0 lf 1010,9 hPa 0,0 l/m 0 min 0 min 128 W/m 15,8 km/h (3 Bft) 93,48 %
15.04.2018 13:42 17,8 C 18,3 C 17,8 C 71 % 0 lf 1010,9 hPa 0,0 l/m 0 min 0 min 125 W/m 13,5 km/h (3 Bft) 93,62 %
15.04.2018 13:44 17,8 C 17,8 C 17,2 C 71 % 0 lf 1010,8 hPa 0,0 l/m 0 min 0 min 115 W/m 22,5 km/h (4 Bft) 97,87 %
15.04.2018 13:46 17,7 C 17,2 C 17,2 C 71 % 0 lf 1010,9 hPa 0,0 l/m 0 min 0 min 117 W/m 24,8 km/h (4 Bft) 95,74 %
15.04.2018 13:48 17,7 C 17,8 C 16,7 C 71 % 0 lf 1010,8 hPa 0,0 l/m 0 min 0 min 124 W/m 13,5 km/h (3 Bft) 97,87 %
15.04.2018 13:50 17,7 C 17,8 C 16,7 C 71 % 0 lf 1010,7 hPa 0,0 l/m 0 min 0 min 133 W/m 15,8 km/h (3 Bft) 97,87 %
15.04.2018 13:52 17,6 C 17,8 C 17,2 C 71 % 0 lf 1010,7 hPa 0,0 l/m 0 min 0 min 145 W/m 11,3 km/h (2 Bft) 93,48 %
15.04.2018 13:54 17,6 C 17,8 C 17,2 C 72 % 0 lf 1010,6 hPa 0,0 l/m 0 min 0 min 155 W/m 15,8 km/h (3 Bft) 91,49 %
15.04.2018 13:56 17,6 C 17,8 C 17,2 C 71 % 0 lf 1010,7 hPa 0,0 l/m 0 min 0 min 154 W/m 13,5 km/h (3 Bft) 95,74 %
15.04.2018 13:58 17,5 C 17,8 C 17,2 C 72 % 0 lf 1010,7 hPa 0,0 l/m 0 min 0 min 143 W/m 13,5 km/h (3 Bft) 97,87 %
15.04.2018 14:00 17,5 C 18,3 C 16,7 C 72 % 0 lf 1010,6 hPa 0,0 l/m 0 min 0 min 126 W/m 18,0 km/h (3 Bft) 95,74 %
15.04.2018 14:02 17,4 C 18,3 C 16,7 C 72 % 0 lf 1010,7 hPa 0,0 l/m 0 min 0 min 114 W/m 15,8 km/h (3 Bft) 97,87 %
15.04.2018 14:04 17,4 C 18,3 C 16,7 C 72 % 0 lf 1010,7 hPa 0,0 l/m 0 min 0 min 113 W/m 11,3 km/h (2 Bft) 97,83 %
15.04.2018 14:06 17,4 C 18,3 C 16,7 C 73 % 0 lf 1010,6 hPa 0,0 l/m 0 min 0 min 116 W/m 11,3 km/h (2 Bft) 93,62 %
15.04.2018 14:08 17,4 C 17,8 C 16,7 C 73 % 0 lf 1010,6 hPa 0,0 l/m 0 min 0 min 123 W/m 11,3 km/h (2 Bft) 93,62 %
15.04.2018 14:10 17,4 C 18,3 C 16,7 C 74 % 0 lf 1010,6 hPa 0,0 l/m 0 min 0 min 132 W/m 6,8 km/h (2 Bft) 97,87 %
15.04.2018 14:12 17,4 C 18,3 C 17,2 C 74 % 0 lf 1010,5 hPa 0,0 l/m 0 min 0 min 135 W/m 4,5 km/h (1 Bft) 97,87 %
15.04.2018 14:14 17,4 C 18,3 C 17,2 C 75 % 0 lf 1010,5 hPa 0,0 l/m 0 min 0 min 132 W/m 4,5 km/h (1 Bft) 97,87 %
15.04.2018 14:16 17,4 C 18,3 C 17,2 C 75 % 0 lf 1010,5 hPa 0,0 l/m 0 min 0 min 128 W/m 4,5 km/h (1 Bft) 97,83 %
15.04.2018 14:18 17,4 C 17,8 C 17,2 C 74 % 0 lf 1010,5 hPa 0,0 l/m 0 min 0 min 124 W/m 4,5 km/h (1 Bft) 100,00 %
15.04.2018 14:20 17,4 C 17,8 C 17,2 C 74 % 0 lf 1010,5 hPa 0,0 l/m 0 min 0 min 119 W/m 6,8 km/h (2 Bft) 97,87 %
15.04.2018 14:22 17,4 C 17,8 C 17,2 C 74 % 0 lf 1010,5 hPa 0,0 l/m 0 min 0 min 113 W/m 6,8 km/h (2 Bft) 97,87 %
15.04.2018 14:24 17,4 C 17,8 C 17,2 C 74 % 0 lf 1010,5 hPa 0,0 l/m 0 min 0 min 103 W/m 2,3 km/h (1 Bft) 97,87 %
15.04.2018 14:26 17,4 C 17,8 C 17,2 C 74 % 0 lf 1010,5 hPa 0,0 l/m 0 min 0 min 93 W/m 4,5 km/h (1 Bft) 97,83 %
15.04.2018 14:28 17,4 C 17,8 C 17,2 C 74 % 0 lf 1010,5 hPa 0,0 l/m 0 min 0 min 88 W/m 4,5 km/h (1 Bft) 97,87 %
15.04.2018 14:30 17,4 C 17,8 C 16,7 C 74 % 0 lf 1010,4 hPa 0,0 l/m 0 min 0 min 89 W/m 4,5 km/h (1 Bft) 97,87 %
15.04.2018 14:32 17,4 C 18,3 C 16,7 C 74 % 0 lf 1010,4 hPa 0,0 l/m 0 min 0 min 91 W/m 6,8 km/h (2 Bft) 97,87 %
15.04.2018 14:34 17,4 C 18,3 C 16,7 C 73 % 0 lf 1010,3 hPa 0,0 l/m 0 min 0 min 94 W/m 6,8 km/h (2 Bft) 97,87 %
15.04.2018 14:36 17,4 C 18,3 C 16,7 C 73 % 0 lf 1010,4 hPa 0,0 l/m 0 min 0 min 96 W/m 4,5 km/h (1 Bft) 97,87 %
15.04.2018 14:38 17,4 C 18,3 C 16,7 C 73 % 0 lf 1010,4 hPa 0,0 l/m 0 min 0 min 102 W/m 4,5 km/h (1 Bft) 97,83 %
15.04.2018 14:40 17,4 C 18,3 C 16,7 C 73 % 0 lf 1010,4 hPa 0,0 l/m 0 min 0 min 110 W/m 4,5 km/h (1 Bft) 97,87 %
15.04.2018 14:42 17,4 C 18,3 C 16,7 C 73 % 0 lf 1010,3 hPa 0,0 l/m 0 min 0 min 111 W/m 6,8 km/h (2 Bft) 95,74 %
15.04.2018 14:44 17,4 C 18,3 C 16,7 C 73 % 0 lf 1010,3 hPa 0,0 l/m 0 min 0 min 106 W/m 6,8 km/h (2 Bft) 97,87 %
15.04.2018 14:46 17,4 C 18,3 C 16,7 C 73 % 0 lf 1010,3 hPa 0,0 l/m 0 min 0 min 112 W/m 6,8 km/h (2 Bft) 97,87 %
15.04.2018 14:48 17,4 C 18,9 C 16,7 C 73 % 0 lf 1010,3 hPa 0,0 l/m 0 min 0 min 138 W/m 9,0 km/h (2 Bft) 100,00 %
15.04.2018 14:50 17,4 C 18,9 C 16,7 C 74 % 0 lf 1010,3 hPa 0,0 l/m 0 min 0 min 167 W/m 6,8 km/h (2 Bft) 97,83 %
15.04.2018 14:52 17,4 C 19,4 C 17,2 C 74 % 0 lf 1010,3 hPa 0,0 l/m 0 min 0 min 203 W/m 9,0 km/h (2 Bft) 97,87 %
15.04.2018 14:54 17,4 C 19,4 C 17,8 C 74 % 0 lf 1010,3 hPa 0,0 l/m 0 min 0 min 250 W/m 6,8 km/h (2 Bft) 100,00 %
15.04.2018 14:56 17,4 C 20,0 C 18,3 C 74 % 0 lf 1010,3 hPa 0,0 l/m 0 min 0 min 291 W/m 6,8 km/h (2 Bft) 97,87 %
15.04.2018 14:58 17,4 C 20,6 C 18,9 C 74 % 0 lf 1010,3 hPa 0,0 l/m 0 min 0 min 320 W/m 4,5 km/h (1 Bft) 100,00 %
15.04.2018 15:00 17,4 C 21,7 C 19,4 C 74 % 0 lf 1010,3 hPa 0,0 l/m 0 min 0 min 342 W/m 4,5 km/h (1 Bft) 100,00 %
15.04.2018 15:02 17,5 C 24,4 C 20,6 C 74 % 0 lf 1010,3 hPa 0,0 l/m 2 min 0 min 537 W/m 4,5 km/h (1 Bft) 100,00 %
15.04.2018 15:04 17,6 C 25,0 C 21,1 C 75 % 0 lf 1010,2 hPa 0,0 l/m 2 min 0 min 852 W/m 4,5 km/h (1 Bft) 97,87 %
15.04.2018 15:06 17,7 C 23,3 C 20,0 C 73 % 0 lf 1010,3 hPa 0,0 l/m 0 min 0 min 278 W/m 4,5 km/h (1 Bft) 100,00 %
15.04.2018 15:08 17,7 C 23,3 C 19,4 C 72 % 0 lf 1010,2 hPa 0,0 l/m 0 min 0 min 278 W/m 4,5 km/h (1 Bft) 97,87 %
15.04.2018 15:10 17,8 C 23,9 C 21,1 C 71 % 0 lf 1010,2 hPa 0,0 l/m 0 min 0 min 300 W/m 4,5 km/h (1 Bft) 97,87 %
15.04.2018 15:12 17,9 C 23,9 C 22,8 C 72 % 0 lf 1010,0 hPa 0,0 l/m 2 min 0 min 373 W/m 6,8 km/h (2 Bft) 97,87 %
15.04.2018 15:14 17,9 C 25,0 C 23,9 C 71 % 0 lf 1010,0 hPa 0,0 l/m 2 min 0 min 725 W/m 9,0 km/h (2 Bft) 100,00 %
15.04.2018 15:16 18,1 C 27,2 C 24,4 C 71 % 0 lf 1010,0 hPa 0,0 l/m 2 min 0 min 904 W/m 9,0 km/h (2 Bft) 95,74 %
15.04.2018 15:18 18,2 C 24,4 C 23,9 C 72 % 0 lf 1010,0 hPa 0,0 l/m 2 min 0 min 746 W/m 15,8 km/h (3 Bft) 97,87 %
15.04.2018 15:20 18,4 C 23,3 C 22,8 C 70 % 0 lf 1010,0 hPa 0,0 l/m 0 min 0 min 276 W/m 11,3 km/h (2 Bft) 97,87 %
15.04.2018 15:22 18,5 C 22,8 C 21,7 C 70 % 0 lf 1010,0 hPa 0,0 l/m 0 min 0 min 226 W/m 9,0 km/h (2 Bft) 97,87 %
15.04.2018 15:24 18,6 C 21,7 C 20,6 C 68 % 0 lf 1009,9 hPa 0,0 l/m 0 min 0 min 218 W/m 13,5 km/h (3 Bft) 97,87 %
15.04.2018 15:26 18,7 C 21,1 C 20,6 C 68 % 0 lf 1009,9 hPa 0,0 l/m 0 min 0 min 203 W/m 9,0 km/h (2 Bft) 95,65 %
15.04.2018 15:28 18,8 C 21,1 C 20,0 C 67 % 0 lf 1009,9 hPa 0,0 l/m 0 min 0 min 196 W/m 6,8 km/h (2 Bft) 95,74 %
15.04.2018 15:30 18,8 C 20,6 C 19,4 C 67 % 0 lf 1009,9 hPa 0,0 l/m 0 min 0 min 200 W/m 11,3 km/h (2 Bft) 97,87 %
15.04.2018 15:32 18,9 C 19,4 C 19,4 C 66 % 0 lf 1009,9 hPa 0,0 l/m 0 min 0 min 211 W/m 11,3 km/h (2 Bft) 95,74 %
15.04.2018 15:34 18,9 C 19,4 C 19,4 C 66 % 0 lf 1009,8 hPa 0,0 l/m 0 min 0 min 216 W/m 18,0 km/h (3 Bft) 95,74 %
15.04.2018 15:36 18,9 C 19,4 C 19,4 C 65 % 0 lf 1009,8 hPa 0,0 l/m 0 min 0 min 213 W/m 13,5 km/h (3 Bft) 95,65 %
15.04.2018 15:38 18,9 C 19,4 C 19,4 C 65 % 0 lf 1009,8 hPa 0,0 l/m 0 min 0 min 205 W/m 11,3 km/h (2 Bft) 93,62 %
15.04.2018 15:40 18,9 C 19,4 C 19,4 C 65 % 0 lf 1009,7 hPa 0,0 l/m 0 min 0 min 198 W/m 9,0 km/h (2 Bft) 95,74 %
15.04.2018 15:42 18,9 C 19,4 C 19,4 C 66 % 0 lf 1009,7 hPa 0,0 l/m 0 min 0 min 200 W/m 9,0 km/h (2 Bft) 91,49 %
15.04.2018 15:44 18,9 C 19,4 C 19,4 C 66 % 0 lf 1009,7 hPa 0,0 l/m 0 min 0 min 205 W/m 13,5 km/h (3 Bft) 95,74 %
15.04.2018 15:46 18,8 C 19,4 C 18,9 C 64 % 0 lf 1009,7 hPa 0,0 l/m 0 min 0 min 207 W/m 15,8 km/h (3 Bft) 91,49 %
15.04.2018 15:48 18,8 C 19,4 C 19,4 C 65 % 0 lf 1009,7 hPa 0,0 l/m 0 min 0 min 206 W/m 9,0 km/h (2 Bft) 95,74 %
15.04.2018 15:50 18,8 C 19,4 C 19,4 C 64 % 0 lf 1009,7 hPa 0,0 l/m 0 min 0 min 201 W/m 6,8 km/h (2 Bft) 93,48 %
15.04.2018 15:52 18,8 C 19,4 C 19,4 C 64 % 0 lf 1009,7 hPa 0,0 l/m 0 min 0 min 208 W/m 13,5 km/h (3 Bft) 95,74 %
15.04.2018 15:54 18,8 C 19,4 C 19,4 C 65 % 0 lf 1009,7 hPa 0,0 l/m 0 min 0 min 213 W/m 13,5 km/h (3 Bft) 95,74 %
15.04.2018 15:56 18,8 C 19,4 C 19,4 C 64 % 0 lf 1009,7 hPa 0,0 l/m 0 min 0 min 222 W/m 11,3 km/h (2 Bft) 93,62 %
15.04.2018 15:58 18,8 C 19,4 C 19,4 C 65 % 0 lf 1009,7 hPa 0,0 l/m 0 min 0 min 229 W/m 18,0 km/h (3 Bft) 95,74 %
15.04.2018 16:00 18,8 C 19,4 C 19,4 C 65 % 0 lf 1009,7 hPa 0,0 l/m 0 min 0 min 239 W/m 11,3 km/h (2 Bft) 89,13 %
15.04.2018 16:02 18,8 C 20,6 C 20,0 C 65 % 0 lf 1009,7 hPa 0,0 l/m 0 min 0 min 269 W/m 6,8 km/h (2 Bft) 93,62 %
15.04.2018 16:04 18,8 C 21,1 C 20,0 C 66 % 0 lf 1009,6 hPa 0,0 l/m 0 min 0 min 278 W/m 9,0 km/h (2 Bft) 93,62 %
15.04.2018 16:06 18,9 C 21,7 C 20,6 C 66 % 0 lf 1009,6 hPa 0,0 l/m 0 min 0 min 290 W/m 15,8 km/h (3 Bft) 97,87 %
15.04.2018 16:08 18,9 C 21,1 C 20,6 C 65 % 0 lf 1009,6 hPa 0,0 l/m 0 min 0 min 276 W/m 18,0 km/h (3 Bft) 97,87 %
15.04.2018 16:10 18,9 C 20,6 C 20,6 C 64 % 0 lf 1009,5 hPa 0,0 l/m 2 min 0 min 300 W/m 15,8 km/h (3 Bft) 97,87 %
15.04.2018 16:12 19,0 C 20,6 C 20,6 C 63 % 0 lf 1009,5 hPa 0,0 l/m 2 min 0 min 299 W/m 13,5 km/h (3 Bft) 95,65 %
15.04.2018 16:14 19,0 C 21,1 C 20,6 C 63 % 0 lf 1009,5 hPa 0,0 l/m 2 min 0 min 304 W/m 11,3 km/h (2 Bft) 93,62 %
15.04.2018 16:16 19,0 C 20,6 C 21,1 C 63 % 0 lf 1009,5 hPa 0,0 l/m 2 min 0 min 308 W/m 13,5 km/h (3 Bft) 95,74 %
15.04.2018 16:18 19,1 C 20,6 C 20,6 C 64 % 0 lf 1009,5 hPa 0,0 l/m 2 min 0 min 309 W/m 15,8 km/h (3 Bft) 95,74 %
15.04.2018 16:20 19,1 C 20,6 C 20,6 C 63 % 0 lf 1009,5 hPa 0,0 l/m 2 min 0 min 309 W/m 18,0 km/h (3 Bft) 97,87 %
15.04.2018 16:22 19,1 C 21,1 C 21,1 C 63 % 0 lf 1009,5 hPa 0,0 l/m 2 min 0 min 308 W/m 13,5 km/h (3 Bft) 97,87 %
15.04.2018 16:24 19,2 C 21,1 C 21,1 C 64 % 0 lf 1009,5 hPa 0,0 l/m 2 min 0 min 305 W/m 9,0 km/h (2 Bft) 93,48 %
15.04.2018 16:26 19,2 C 20,6 C 21,1 C 62 % 0 lf 1009,4 hPa 0,0 l/m 0 min 0 min 286 W/m 15,8 km/h (3 Bft) 97,87 %
15.04.2018 16:28 19,2 C 20,6 C 20,6 C 63 % 0 lf 1009,4 hPa 0,0 l/m 0 min 0 min 260 W/m 13,5 km/h (3 Bft) 95,74 %
15.04.2018 16:30 19,2 C 21,1 C 20,6 C 63 % 0 lf 1009,4 hPa 0,0 l/m 0 min 0 min 257 W/m 13,5 km/h (3 Bft) 97,87 %
15.04.2018 16:32 19,2 C 20,6 C 20,6 C 63 % 0 lf 1009,4 hPa 0,0 l/m 0 min 0 min 253 W/m 18,0 km/h (3 Bft) 93,62 %
15.04.2018 16:34 19,2 C 20,6 C 20,0 C 62 % 0 lf 1009,4 hPa 0,0 l/m 0 min 0 min 245 W/m 13,5 km/h (3 Bft) 93,62 %
15.04.2018 16:36 19,2 C 20,0 C 20,0 C 62 % 0 lf 1009,2 hPa 0,0 l/m 0 min 0 min 236 W/m 18,0 km/h (3 Bft) 95,65 %
15.04.2018 16:38 19,3 C 20,6 C 20,0 C 63 % 0 lf 1009,2 hPa 0,0 l/m 0 min 0 min 230 W/m 13,5 km/h (3 Bft) 97,87 %
15.04.2018 16:40 19,3 C 20,6 C 19,4 C 63 % 0 lf 1009,2 hPa 0,0 l/m 0 min 0 min 224 W/m 15,8 km/h (3 Bft) 95,74 %
15.04.2018 16:42 19,3 C 20,0 C 19,4 C 63 % 0 lf 1009,2 hPa 0,0 l/m 0 min 0 min 198 W/m 13,5 km/h (3 Bft) 95,74 %
15.04.2018 16:44 19,3 C 19,4 C 19,4 C 62 % 0 lf 1009,2 hPa 0,0 l/m 0 min 0 min 185 W/m 20,3 km/h (4 Bft) 95,74 %
15.04.2018 16:46 19,2 C 19,4 C 18,9 C 62 % 0 lf 1009,2 hPa 0,0 l/m 0 min 0 min 178 W/m 15,8 km/h (3 Bft) 95,74 %
15.04.2018 16:48 19,2 C 19,4 C 18,9 C 62 % 0 lf 1009,2 hPa 0,0 l/m 0 min 0 min 174 W/m 20,3 km/h (4 Bft) 93,48 %
15.04.2018 16:50 19,2 C 19,4 C 18,9 C 62 % 0 lf 1009,2 hPa 0,0 l/m 0 min 0 min 171 W/m 13,5 km/h (3 Bft) 93,62 %
15.04.2018 16:52 19,1 C 19,4 C 18,9 C 63 % 0 lf 1009,2 hPa 0,0 l/m 0 min 0 min 167 W/m 11,3 km/h (2 Bft) 95,74 %
15.04.2018 16:54 19,1 C 19,4 C 18,9 C 63 % 0 lf 1009,1 hPa 0,0 l/m 0 min 0 min 166 W/m 11,3 km/h (2 Bft) 95,74 %
15.04.2018 16:56 19,1 C 19,4 C 18,9 C 63 % 0 lf 1009,2 hPa 0,0 l/m 0 min 0 min 166 W/m 11,3 km/h (2 Bft) 97,87 %
15.04.2018 16:58 19,1 C 19,4 C 18,9 C 63 % 0 lf 1009,2 hPa 0,0 l/m 0 min 0 min 162 W/m 13,5 km/h (3 Bft) 95,74 %
15.04.2018 17:00 19,1 C 19,4 C 18,9 C 63 % 0 lf 1009,1 hPa 0,0 l/m 0 min 0 min 161 W/m 18,0 km/h (3 Bft) 100,00 %
15.04.2018 17:02 19,1 C 19,4 C 18,9 C 63 % 0 lf 1009,1 hPa 0,0 l/m 0 min 0 min 165 W/m 15,8 km/h (3 Bft) 97,87 %
15.04.2018 17:04 19,0 C 19,4 C 18,9 C 63 % 0 lf 1009,1 hPa 0,0 l/m 0 min 0 min 171 W/m 15,8 km/h (3 Bft) 97,87 %
15.04.2018 17:06 19,0 C 19,4 C 18,9 C 63 % 0 lf 1009,0 hPa 0,0 l/m 0 min 0 min 177 W/m 11,3 km/h (2 Bft) 95,74 %
15.04.2018 17:08 19,0 C 20,0 C 18,9 C 63 % 0 lf 1009,0 hPa 0,0 l/m 0 min 0 min 185 W/m 9,0 km/h (2 Bft) 95,74 %
15.04.2018 17:10 19,0 C 19,4 C 18,9 C 63 % 0 lf 1009,0 hPa 0,0 l/m 0 min 0 min 195 W/m 13,5 km/h (3 Bft) 95,74 %
15.04.2018 17:12 19,0 C 20,0 C 18,9 C 63 % 0 lf 1009,0 hPa 0,0 l/m 0 min 0 min 200 W/m 4,5 km/h (1 Bft) 97,83 %
15.04.2018 17:14 19,0 C 20,6 C 18,9 C 64 % 0 lf 1009,0 hPa 0,0 l/m 0 min 0 min 210 W/m 9,0 km/h (2 Bft) 97,87 %
15.04.2018 17:16 19,0 C 20,6 C 18,9 C 64 % 0 lf 1009,0 hPa 0,0 l/m 0 min 0 min 216 W/m 13,5 km/h (3 Bft) 97,87 %
15.04.2018 17:18 19,0 C 20,0 C 19,4 C 64 % 0 lf 1009,1 hPa 0,0 l/m 0 min 0 min 219 W/m 11,3 km/h (2 Bft) 97,87 %
15.04.2018 17:20 19,0 C 20,0 C 19,4 C 65 % 0 lf 1009,0 hPa 0,0 l/m 0 min 0 min 213 W/m 13,5 km/h (3 Bft) 95,74 %
15.04.2018 17:22 19,0 C 20,0 C 18,9 C 65 % 0 lf 1009,0 hPa 0,0 l/m 0 min 0 min 201 W/m 15,8 km/h (3 Bft) 95,65 %
15.04.2018 17:24 19,0 C 20,0 C 18,9 C 65 % 0 lf 1009,0 hPa 0,0 l/m 0 min 0 min 197 W/m 13,5 km/h (3 Bft) 96,00 %
15.04.2018 17:26 19,0 C 20,0 C 18,9 C 65 % 0 lf 1009,0 hPa 0,0 l/m 0 min 0 min 201 W/m 11,3 km/h (2 Bft) 97,87 %
15.04.2018 17:28 19,0 C 20,0 C 18,9 C 65 % 0 lf 1008,9 hPa 0,0 l/m 2 min 0 min 231 W/m 13,5 km/h (3 Bft) 95,74 %
15.04.2018 17:30 19,0 C 20,0 C 18,9 C 64 % 0 lf 1008,9 hPa 0,0 l/m 0 min 0 min 220 W/m 20,3 km/h (4 Bft) 100,00 %
15.04.2018 17:32 18,9 C 20,0 C 18,9 C 64 % 0 lf 1009,0 hPa 0,0 l/m 0 min 0 min 213 W/m 18,0 km/h (3 Bft) 100,00 %
15.04.2018 17:34 18,9 C 19,4 C 18,9 C 64 % 0 lf 1009,0 hPa 0,0 l/m 0 min 0 min 207 W/m 18,0 km/h (3 Bft) 97,83 %
15.04.2018 17:36 18,9 C 19,4 C 18,9 C 64 % 0 lf 1009,0 hPa 0,0 l/m 0 min 0 min 199 W/m 15,8 km/h (3 Bft) 100,00 %
15.04.2018 17:38 18,8 C 19,4 C 18,3 C 64 % 0 lf 1008,9 hPa 0,0 l/m 0 min 0 min 193 W/m 15,8 km/h (3 Bft) 100,00 %
15.04.2018 17:40 18,8 C 19,4 C 18,9 C 64 % 0 lf 1008,9 hPa 0,0 l/m 0 min 0 min 187 W/m 15,8 km/h (3 Bft) 100,00 %
15.04.2018 17:42 18,8 C 19,4 C 18,9 C 65 % 0 lf 1008,9 hPa 0,0 l/m 0 min 0 min 180 W/m 13,5 km/h (3 Bft) 100,00 %
15.04.2018 17:44 18,8 C 19,4 C 18,3 C 65 % 0 lf 1008,9 hPa 0,0 l/m 0 min 0 min 174 W/m 13,5 km/h (3 Bft) 100,00 %
15.04.2018 17:46 18,8 C 19,4 C 18,3 C 65 % 0 lf 1008,9 hPa 0,0 l/m 0 min 0 min 170 W/m 13,5 km/h (3 Bft) 97,83 %
15.04.2018 17:48 18,7 C 19,4 C 18,3 C 64 % 0 lf 1009,0 hPa 0,0 l/m 0 min 0 min 166 W/m 13,5 km/h (3 Bft) 100,00 %
15.04.2018 17:50 18,7 C 19,4 C 18,3 C 65 % 0 lf 1009,0 hPa 0,0 l/m 0 min 0 min 162 W/m 9,0 km/h (2 Bft) 97,87 %
15.04.2018 17:52 18,7 C 19,4 C 18,3 C 65 % 0 lf 1009,0 hPa 0,0 l/m 0 min 0 min 159 W/m 11,3 km/h (2 Bft) 100,00 %
15.04.2018 17:54 18,7 C 18,9 C 18,3 C 64 % 0 lf 1009,0 hPa 0,0 l/m 0 min 0 min 157 W/m 15,8 km/h (3 Bft) 100,00 %
15.04.2018 17:56 18,7 C 18,9 C 18,3 C 64 % 0 lf 1009,0 hPa 0,0 l/m 0 min 0 min 155 W/m 15,8 km/h (3 Bft) 100,00 %
15.04.2018 17:58 18,6 C 18,9 C 17,8 C 65 % 0 lf 1009,0 hPa 0,0 l/m 0 min 0 min 151 W/m 15,8 km/h (3 Bft) 97,87 %
15.04.2018 18:00 18,6 C 18,9 C 17,8 C 64 % 0 lf 1009,0 hPa 0,0 l/m 0 min 0 min 149 W/m 13,5 km/h (3 Bft) 100,00 %
15.04.2018 18:02 18,6 C 18,9 C 17,8 C 64 % 0 lf 1009,0 hPa 0,0 l/m 0 min 0 min 152 W/m 13,5 km/h (3 Bft) 100,00 %
15.04.2018 18:04 18,6 C 18,9 C 17,8 C 64 % 0 lf 1009,0 hPa 0,0 l/m 0 min 0 min 151 W/m 13,5 km/h (3 Bft) 100,00 %
15.04.2018 18:08 18,5 C 18,9 C 17,8 C 64 % 0 lf 1009,0 hPa 0,0 l/m 0 min 0 min 153 W/m 15,8 km/h (3 Bft) 96,81 %
15.04.2018 18:10 18,5 C 18,9 C 17,8 C 65 % 0 lf 1009,0 hPa 0,0 l/m 0 min 0 min 142 W/m 15,8 km/h (3 Bft) 95,74 %
15.04.2018 18:12 18,5 C 18,9 C 17,8 C 64 % 0 lf 1009,0 hPa 0,0 l/m 0 min 0 min 135 W/m 18,0 km/h (3 Bft) 97,87 %
15.04.2018 18:14 18,4 C 18,3 C 17,2 C 64 % 0 lf 1009,0 hPa 0,0 l/m 0 min 0 min 126 W/m 15,8 km/h (3 Bft) 97,87 %
15.04.2018 18:16 18,4 C 18,3 C 17,2 C 64 % 0 lf 1009,0 hPa 0,0 l/m 0 min 0 min 115 W/m 22,5 km/h (4 Bft) 100,00 %
15.04.2018 18:18 18,3 C 18,3 C 17,2 C 64 % 0 lf 1009,0 hPa 0,0 l/m 0 min 0 min 105 W/m 20,3 km/h (4 Bft) 93,62 %
15.04.2018 18:20 18,3 C 18,3 C 17,2 C 64 % 0 lf 1009,1 hPa 0,0 l/m 0 min 0 min 95 W/m 15,8 km/h (3 Bft) 93,48 %
15.04.2018 18:22 18,3 C 18,3 C 16,7 C 65 % 0 lf 1009,2 hPa 0,0 l/m 0 min 0 min 88 W/m 18,0 km/h (3 Bft) 93,62 %
15.04.2018 18:24 18,2 C 18,3 C 16,7 C 65 % 0 lf 1009,1 hPa 0,0 l/m 0 min 0 min 81 W/m 13,5 km/h (3 Bft) 93,62 %
15.04.2018 18:26 18,2 C 17,8 C 16,7 C 65 % 0 lf 1009,2 hPa 0,0 l/m 0 min 0 min 73 W/m 11,3 km/h (2 Bft) 91,49 %
15.04.2018 18:28 18,1 C 17,8 C 16,7 C 66 % 0 lf 1009,2 hPa 0,0 l/m 0 min 0 min 61 W/m 15,8 km/h (3 Bft) 93,62 %
15.04.2018 18:30 18,1 C 17,8 C 16,7 C 66 % 0 lf 1009,3 hPa 0,0 l/m 0 min 0 min 52 W/m 15,8 km/h (3 Bft) 93,62 %
15.04.2018 18:32 18,0 C 17,8 C 16,1 C 66 % 0 lf 1009,3 hPa 0,0 l/m 0 min 0 min 47 W/m 18,0 km/h (3 Bft) 93,48 %
15.04.2018 18:34 18,0 C 17,2 C 16,1 C 66 % 0 lf 1009,3 hPa 0,0 l/m 0 min 0 min 40 W/m 15,8 km/h (3 Bft) 91,49 %
15.04.2018 18:36 17,9 C 17,2 C 16,1 C 66 % 0 lf 1009,3 hPa 0,0 l/m 0 min 0 min 36 W/m 22,5 km/h (4 Bft) 93,62 %
15.04.2018 18:38 17,8 C 17,2 C 15,6 C 66 % 0 lf 1009,4 hPa 0,0 l/m 0 min 0 min 34 W/m 22,5 km/h (4 Bft) 93,62 %
15.04.2018 18:40 17,7 C 16,7 C 15,6 C 67 % 0 lf 1009,4 hPa 0,0 l/m 0 min 0 min 33 W/m 13,5 km/h (3 Bft) 93,62 %
15.04.2018 18:42 17,7 C 16,7 C 15,6 C 67 % 0 lf 1009,4 hPa 0,0 l/m 0 min 0 min 31 W/m 15,8 km/h (3 Bft) 93,62 %
15.04.2018 18:44 17,6 C 16,7 C 15,6 C 67 % 0 lf 1009,4 hPa 0,0 l/m 0 min 0 min 28 W/m 20,3 km/h (4 Bft) 91,30 %
15.04.2018 18:46 17,5 C 16,7 C 15,0 C 67 % 0 lf 1009,4 hPa 0,0 l/m 0 min 0 min 27 W/m 20,3 km/h (4 Bft) 93,62 %
15.04.2018 18:48 17,4 C 16,7 C 15,0 C 67 % 0 lf 1009,4 hPa 0,0 l/m 0 min 0 min 26 W/m 18,0 km/h (3 Bft) 93,62 %
15.04.2018 18:50 17,3 C 16,1 C 15,0 C 68 % 0 lf 1009,5 hPa 0,0 l/m 0 min 0 min 26 W/m 15,8 km/h (3 Bft) 91,49 %
15.04.2018 18:52 17,2 C 16,1 C 15,0 C 68 % 0 lf 1009,4 hPa 0,0 l/m 0 min 0 min 26 W/m 11,3 km/h (2 Bft) 91,49 %
15.04.2018 18:54 17,2 C 16,1 C 15,0 C 68 % 0 lf 1009,3 hPa 0,0 l/m 0 min 0 min 27 W/m 15,8 km/h (3 Bft) 95,74 %
15.04.2018 18:56 17,1 C 16,1 C 15,0 C 69 % 0 lf 1009,4 hPa 0,0 l/m 0 min 0 min 29 W/m 15,8 km/h (3 Bft) 95,65 %
15.04.2018 18:58 17,0 C 16,1 C 15,0 C 69 % 0 lf 1009,3 hPa 0,0 l/m 0 min 0 min 30 W/m 15,8 km/h (3 Bft) 95,74 %
15.04.2018 19:00 16,9 C 16,1 C 15,0 C 69 % 0 lf 1009,4 hPa 0,0 l/m 0 min 0 min 30 W/m 11,3 km/h (2 Bft) 95,74 %
15.04.2018 19:02 16,9 C 16,1 C 15,0 C 69 % 0 lf 1009,4 hPa 0,0 l/m 0 min 0 min 30 W/m 13,5 km/h (3 Bft) 95,74 %
15.04.2018 19:04 16,8 C 16,1 C 15,0 C 69 % 0 lf 1009,4 hPa 0,0 l/m 0 min 0 min 32 W/m 9,0 km/h (2 Bft) 95,74 %
15.04.2018 19:06 16,8 C 16,1 C 15,0 C 69 % 0 lf 1009,3 hPa 0,0 l/m 0 min 0 min 37 W/m 6,8 km/h (2 Bft) 95,74 %
15.04.2018 19:08 16,8 C 16,1 C 15,0 C 69 % 0 lf 1009,4 hPa 0,0 l/m 0 min 0 min 40 W/m 4,5 km/h (1 Bft) 97,83 %
15.04.2018 19:10 16,8 C 16,1 C 15,0 C 69 % 0 lf 1009,4 hPa 0,0 l/m 0 min 0 min 45 W/m 4,5 km/h (1 Bft) 91,49 %
15.04.2018 19:12 16,7 C 16,1 C 15,0 C 69 % 0 lf 1009,3 hPa 0,0 l/m 0 min 0 min 50 W/m 4,5 km/h (1 Bft) 95,74 %
15.04.2018 19:14 16,7 C 16,1 C 15,0 C 69 % 0 lf 1009,4 hPa 0,0 l/m 0 min 0 min 53 W/m 4,5 km/h (1 Bft) 100,00 %
15.04.2018 19:16 16,7 C 16,7 C 15,0 C 69 % 0 lf 1009,3 hPa 0,0 l/m 0 min 0 min 52 W/m 4,5 km/h (1 Bft) 97,87 %
15.04.2018 19:18 16,7 C 16,7 C 15,0 C 69 % 0 lf 1009,4 hPa 0,0 l/m 0 min 0 min 50 W/m 4,5 km/h (1 Bft) 100,00 %
15.04.2018 19:20 16,7 C 16,7 C 15,0 C 70 % 0 lf 1009,4 hPa 0,0 l/m 0 min 0 min 49 W/m 6,8 km/h (2 Bft) 100,00 %
15.04.2018 19:22 16,7 C 16,7 C 15,0 C 70 % 0 lf 1009,3 hPa 0,0 l/m 0 min 0 min 49 W/m 6,8 km/h (2 Bft) 97,87 %
15.04.2018 19:24 16,6 C 16,1 C 15,0 C 70 % 0 lf 1009,4 hPa 0,0 l/m 0 min 0 min 47 W/m 4,5 km/h (1 Bft) 97,87 %
15.04.2018 19:26 16,6 C 16,1 C 15,0 C 70 % 0 lf 1009,4 hPa 0,0 l/m 0 min 0 min 47 W/m 4,5 km/h (1 Bft) 100,00 %
15.04.2018 19:28 16,6 C 16,1 C 15,0 C 70 % 0 lf 1009,3 hPa 0,0 l/m 0 min 0 min 46 W/m 0,0 km/h (0 Bft) 97,87 %
15.04.2018 19:30 16,6 C 16,1 C 15,0 C 70 % 0 lf 1009,2 hPa 0,0 l/m 0 min 0 min 46 W/m 0,0 km/h (0 Bft) 100,00 %
15.04.2018 19:32 16,6 C 16,1 C 15,0 C 70 % 0 lf 1009,3 hPa 0,0 l/m 0 min 0 min 43 W/m 0,0 km/h (0 Bft) 97,87 %
15.04.2018 19:34 16,6 C 16,1 C 15,0 C 70 % 0 lf 1009,3 hPa 0,0 l/m 0 min 0 min 42 W/m 0,0 km/h (0 Bft) 97,87 %
15.04.2018 19:36 16,6 C 16,1 C 15,0 C 71 % 0 lf 1009,3 hPa 0,0 l/m 0 min 0 min 40 W/m 0,0 km/h (0 Bft) 97,87 %
15.04.2018 19:38 16,6 C 16,1 C 15,0 C 71 % 0 lf 1009,3 hPa 0,0 l/m 0 min 0 min 40 W/m 4,5 km/h (1 Bft) 97,87 %
15.04.2018 19:40 16,6 C 16,1 C 15,0 C 71 % 0 lf 1009,3 hPa 0,0 l/m 0 min 0 min 39 W/m 4,5 km/h (1 Bft) 97,87 %
15.04.2018 19:42 16,6 C 16,1 C 15,0 C 71 % 0 lf 1009,3 hPa 0,0 l/m 0 min 0 min 39 W/m 4,5 km/h (1 Bft) 100,00 %
15.04.2018 19:44 16,6 C 16,1 C 14,4 C 71 % 0 lf 1009,4 hPa 0,0 l/m 0 min 0 min 37 W/m 6,8 km/h (2 Bft) 100,00 %
15.04.2018 19:46 16,6 C 16,1 C 14,4 C 71 % 0 lf 1009,4 hPa 0,0 l/m 0 min 0 min 34 W/m 4,5 km/h (1 Bft) 97,87 %
15.04.2018 19:48 16,6 C 16,1 C 14,4 C 72 % 0 lf 1009,4 hPa 0,0 l/m 0 min 0 min 30 W/m 6,8 km/h (2 Bft) 95,74 %
15.04.2018 19:50 16,5 C 16,1 C 14,4 C 72 % 0 lf 1009,5 hPa 0,0 l/m 0 min 0 min 26 W/m 6,8 km/h (2 Bft) 97,87 %
15.04.2018 19:52 16,6 C 16,1 C 14,4 C 72 % 0 lf 1009,5 hPa 0,0 l/m 0 min 0 min 25 W/m 9,0 km/h (2 Bft) 97,87 %
15.04.2018 19:54 16,5 C 16,1 C 14,4 C 72 % 0 lf 1009,4 hPa 0,0 l/m 0 min 0 min 24 W/m 6,8 km/h (2 Bft) 95,65 %
15.04.2018 19:56 16,5 C 16,1 C 14,4 C 72 % 0 lf 1009,5 hPa 0,0 l/m 0 min 0 min 21 W/m 6,8 km/h (2 Bft) 97,87 %
15.04.2018 19:58 16,4 C 15,6 C 14,4 C 72 % 0 lf 1009,5 hPa 0,0 l/m 0 min 0 min 21 W/m 4,5 km/h (1 Bft) 95,74 %
15.04.2018 20:00 16,4 C 15,6 C 14,4 C 72 % 0 lf 1009,5 hPa 0,0 l/m 0 min 0 min 19 W/m 6,8 km/h (2 Bft) 97,87 %
15.04.2018 20:02 16,4 C 15,6 C 14,4 C 72 % 0 lf 1009,5 hPa 0,0 l/m 0 min 0 min 18 W/m 6,8 km/h (2 Bft) 95,74 %
15.04.2018 20:04 16,4 C 15,6 C 13,9 C 72 % 0 lf 1009,5 hPa 0,0 l/m 0 min 0 min 17 W/m 9,0 km/h (2 Bft) 97,87 %
15.04.2018 20:06 16,4 C 15,6 C 13,9 C 72 % 0 lf 1009,5 hPa 0,0 l/m 0 min 0 min 14 W/m 4,5 km/h (1 Bft) 95,65 %
15.04.2018 20:08 16,4 C 15,6 C 13,9 C 72 % 0 lf 1009,5 hPa 0,0 l/m 0 min 0 min 13 W/m 4,5 km/h (1 Bft) 95,74 %
15.04.2018 20:10 16,4 C 15,6 C 13,9 C 72 % 0 lf 1009,5 hPa 0,0 l/m 0 min 0 min 12 W/m 6,8 km/h (2 Bft) 97,87 %
15.04.2018 20:12 16,4 C 15,6 C 13,9 C 72 % 0 lf 1009,5 hPa 0,0 l/m 0 min 0 min 11 W/m 6,8 km/h (2 Bft) 97,87 %
15.04.2018 20:14 16,4 C 15,6 C 13,9 C 72 % 0 lf 1009,5 hPa 0,0 l/m 0 min 0 min 11 W/m 9,0 km/h (2 Bft) 95,74 %
15.04.2018 20:16 16,3 C 15,6 C 13,9 C 72 % 0 lf 1009,5 hPa 0,0 l/m 0 min 0 min 9 W/m 9,0 km/h (2 Bft) 95,74 %
15.04.2018 20:18 16,3 C 15,6 C 13,9 C 72 % 0 lf 1009,5 hPa 0,0 l/m 0 min 0 min 9 W/m 6,8 km/h (2 Bft) 95,65 %
15.04.2018 20:20 16,3 C 15,6 C 13,9 C 72 % 0 lf 1009,5 hPa 0,0 l/m 0 min 0 min 7 W/m 6,8 km/h (2 Bft) 97,87 %
15.04.2018 20:22 16,3 C 15,6 C 13,3 C 72 % 0 lf 1009,5 hPa 0,0 l/m 0 min 0 min 7 W/m 4,5 km/h (1 Bft) 97,87 %
15.04.2018 20:24 16,3 C 15,6 C 13,3 C 72 % 0 lf 1009,5 hPa 0,0 l/m 0 min 0 min 5 W/m 4,5 km/h (1 Bft) 93,62 %
15.04.2018 20:26 16,3 C 15,6 C 13,3 C 72 % 0 lf 1009,6 hPa 0,0 l/m 0 min 0 min 5 W/m 4,5 km/h (1 Bft) 95,74 %
15.04.2018 20:28 16,3 C 15,6 C 13,3 C 73 % 0 lf 1009,7 hPa 0,0 l/m 0 min 0 min 5 W/m 4,5 km/h (1 Bft) 95,65 %
15.04.2018 20:30 16,2 C 15,0 C 12,8 C 73 % 0 lf 1009,7 hPa 0,0 l/m 0 min 0 min 5 W/m 4,5 km/h (1 Bft) 93,62 %
15.04.2018 20:32 16,2 C 15,0 C 12,8 C 73 % 0 lf 1009,7 hPa 0,0 l/m 0 min 0 min 0 W/m 4,5 km/h (1 Bft) 91,49 %
15.04.2018 20:34 16,2 C 15,0 C 12,8 C 73 % 0 lf 1009,7 hPa 0,0 l/m 0 min 0 min 0 W/m 6,8 km/h (2 Bft) 95,74 %
15.04.2018 20:36 16,2 C 15,0 C 12,2 C 73 % 0 lf 1009,7 hPa 0,0 l/m 0 min 0 min 0 W/m 6,8 km/h (2 Bft) 95,74 %
15.04.2018 20:38 16,2 C 15,0 C 12,2 C 73 % 0 lf 1009,7 hPa 0,0 l/m 0 min 0 min 0 W/m 4,5 km/h (1 Bft) 97,87 %
15.04.2018 20:40 16,1 C 14,4 C 12,2 C 73 % 0 lf 1009,7 hPa 0,0 l/m 0 min 0 min 0 W/m 4,5 km/h (1 Bft) 97,83 %
15.04.2018 20:42 16,1 C 14,4 C 12,2 C 73 % 0 lf 1009,7 hPa 0,0 l/m 0 min 0 min 0 W/m 4,5 km/h (1 Bft) 95,74 %
15.04.2018 20:44 16,1 C 14,4 C 12,2 C 73 % 0 lf 1009,7 hPa 0,0 l/m 0 min 0 min 0 W/m 6,8 km/h (2 Bft) 97,87 %
15.04.2018 20:46 16,1 C 14,4 C 12,2 C 73 % 0 lf 1009,6 hPa 0,0 l/m 0 min 0 min 0 W/m 6,8 km/h (2 Bft) 95,74 %
15.04.2018 20:48 16,0 C 14,4 C 11,7 C 73 % 0 lf 1009,7 hPa 0,0 l/m 0 min 0 min 0 W/m 6,8 km/h (2 Bft) 91,49 %
15.04.2018 20:50 16,0 C 14,4 C 11,7 C 73 % 0 lf 1009,5 hPa 0,0 l/m 0 min 0 min 0 W/m 6,8 km/h (2 Bft) 95,74 %
15.04.2018 20:52 15,9 C 14,4 C 11,7 C 73 % 0 lf 1009,6 hPa 0,0 l/m 0 min 0 min 0 W/m 6,8 km/h (2 Bft) 93,48 %
15.04.2018 20:54 15,9 C 14,4 C 12,2 C 73 % 0 lf 1009,6 hPa 0,0 l/m 0 min 0 min 0 W/m 6,8 km/h (2 Bft) 95,74 %
15.04.2018 20:56 15,9 C 14,4 C 12,2 C 74 % 0 lf 1009,7 hPa 0,0 l/m 0 min 0 min 0 W/m 4,5 km/h (1 Bft) 95,74 %
15.04.2018 20:58 15,8 C 13,9 C 12,2 C 74 % 0 lf 1009,7 hPa 0,0 l/m 0 min 0 min 0 W/m 4,5 km/h (1 Bft) 95,74 %
15.04.2018 21:00 15,8 C 13,9 C 11,7 C 74 % 0 lf 1009,8 hPa 0,0 l/m 0 min 0 min 0 W/m 4,5 km/h (1 Bft) 97,87 %
15.04.2018 21:02 15,8 C 13,9 C 11,7 C 74 % 0 lf 1009,7 hPa 0,0 l/m 0 min 0 min 0 W/m 4,5 km/h (1 Bft) 93,62 %
15.04.2018 21:04 15,8 C 13,9 C 11,7 C 75 % 0 lf 1009,8 hPa 0,0 l/m 0 min 0 min 0 W/m 4,5 km/h (1 Bft) 97,83 %
15.04.2018 21:06 15,7 C 13,9 C 11,7 C 75 % 0 lf 1009,7 hPa 0,0 l/m 0 min 0 min 0 W/m 4,5 km/h (1 Bft) 97,87 %
15.04.2018 21:08 15,7 C 13,9 C 11,7 C 75 % 0 lf 1009,7 hPa 0,0 l/m 0 min 0 min 0 W/m 4,5 km/h (1 Bft) 97,87 %
15.04.2018 21:10 15,7 C 13,9 C 11,7 C 75 % 0 lf 1009,7 hPa 0,0 l/m 0 min 0 min 0 W/m 4,5 km/h (1 Bft) 95,74 %
15.04.2018 21:12 15,6 C 13,9 C 11,7 C 75 % 0 lf 1009,7 hPa 0,0 l/m 0 min 0 min 0 W/m 4,5 km/h (1 Bft) 97,87 %
15.04.2018 21:14 15,6 C 13,9 C 11,7 C 75 % 0 lf 1009,8 hPa 0,0 l/m 0 min 0 min 0 W/m 4,5 km/h (1 Bft) 97,87 %
15.04.2018 21:16 15,6 C 13,9 C 11,7 C 75 % 0 lf 1009,7 hPa 0,0 l/m 0 min 0 min 0 W/m 4,5 km/h (1 Bft) 97,83 %
15.04.2018 21:18 15,5 C 13,9 C 11,7 C 75 % 0 lf 1009,8 hPa 0,0 l/m 0 min 0 min 0 W/m 4,5 km/h (1 Bft) 95,74 %
15.04.2018 21:20 15,4 C 13,9 C 11,7 C 76 % 0 lf 1009,7 hPa 0,0 l/m 0 min 0 min 0 W/m 4,5 km/h (1 Bft) 97,87 %
15.04.2018 21:22 15,4 C 13,9 C 11,7 C 76 % 0 lf 1009,8 hPa 0,0 l/m 0 min 0 min 0 W/m 4,5 km/h (1 Bft) 97,87 %
15.04.2018 21:24 15,4 C 13,9 C 11,7 C 76 % 0 lf 1009,8 hPa 0,0 l/m 0 min 0 min 0 W/m 6,8 km/h (2 Bft) 95,74 %
15.04.2018 21:26 15,3 C 13,9 C 11,7 C 76 % 0 lf 1009,8 hPa 0,0 l/m 0 min 0 min 0 W/m 4,5 km/h (1 Bft) 97,87 %
15.04.2018 21:28 15,3 C 13,9 C 11,7 C 76 % 0 lf 1009,8 hPa 0,0 l/m 0 min 0 min 0 W/m 4,5 km/h (1 Bft) 97,83 %
15.04.2018 21:30 15,3 C 13,9 C 11,7 C 76 % 0 lf 1009,7 hPa 0,0 l/m 0 min 0 min 0 W/m 4,5 km/h (1 Bft) 100,00 %
15.04.2018 21:32 15,2 C 13,9 C 11,7 C 77 % 0 lf 1009,7 hPa 0,0 l/m 0 min 0 min 0 W/m 4,5 km/h (1 Bft) 97,87 %
15.04.2018 21:34 15,2 C 13,3 C 11,7 C 78 % 0 lf 1009,8 hPa 0,0 l/m 0 min 0 min 0 W/m 4,5 km/h (1 Bft) 100,00 %
15.04.2018 21:36 15,2 C 13,3 C 11,7 C 78 % 0 lf 1009,8 hPa 0,0 l/m 0 min 0 min 0 W/m 4,5 km/h (1 Bft) 100,00 %
15.04.2018 21:38 15,1 C 13,3 C 11,1 C 78 % 0 lf 1009,8 hPa 0,0 l/m 0 min 0 min 0 W/m 2,3 km/h (1 Bft) 95,65 %
15.04.2018 21:40 15,1 C 13,3 C 11,1 C 78 % 0 lf 1009,8 hPa 0,0 l/m 0 min 0 min 0 W/m 4,5 km/h (1 Bft) 97,87 %
15.04.2018 21:42 15,0 C 13,3 C 11,1 C 78 % 0 lf 1009,8 hPa 0,0 l/m 0 min 0 min 0 W/m 6,8 km/h (2 Bft) 93,62 %
15.04.2018 21:44 15,0 C 13,3 C 11,1 C 78 % 0 lf 1009,8 hPa 0,0 l/m 0 min 0 min 0 W/m 4,5 km/h (1 Bft) 97,87 %
15.04.2018 21:46 14,9 C 13,3 C 11,1 C 78 % 0 lf 1009,8 hPa 0,0 l/m 0 min 0 min 0 W/m 6,8 km/h (2 Bft) 97,87 %
15.04.2018 21:48 14,9 C 13,3 C 11,1 C 78 % 0 lf 1009,8 hPa 0,0 l/m 0 min 0 min 0 W/m 4,5 km/h (1 Bft) 95,74 %
15.04.2018 21:50 14,8 C 13,3 C 11,1 C 78 % 0 lf 1009,8 hPa 0,0 l/m 0 min 0 min 0 W/m 4,5 km/h (1 Bft) 95,74 %
15.04.2018 21:52 14,8 C 13,3 C 11,1 C 79 % 0 lf 1009,8 hPa 0,0 l/m 0 min 0 min 0 W/m 4,5 km/h (1 Bft) 97,83 %
15.04.2018 21:54 14,8 C 13,3 C 11,1 C 79 % 0 lf 1009,9 hPa 0,0 l/m 0 min 0 min 0 W/m 2,3 km/h (1 Bft) 97,87 %
15.04.2018 21:56 14,7 C 13,3 C 11,1 C 79 % 0 lf 1009,8 hPa 0,0 l/m 0 min 0 min 0 W/m 2,3 km/h (1 Bft) 95,74 %
15.04.2018 21:58 14,7 C 13,3 C 11,1 C 79 % 0 lf 1009,8 hPa 0,0 l/m 0 min 0 min 0 W/m 2,3 km/h (1 Bft) 97,87 %
15.04.2018 22:00 14,7 C 13,3 C 11,1 C 79 % 0 lf 1009,9 hPa 0,0 l/m 0 min 0 min 0 W/m 4,5 km/h (1 Bft) 95,74 %
15.04.2018 22:02 14,6 C 13,3 C 11,1 C 80 % 0 lf 1009,8 hPa 0,0 l/m 0 min 0 min 0 W/m 2,3 km/h (1 Bft) 95,65 %
15.04.2018 22:04 14,6 C 12,8 C 10,6 C 80 % 0 lf 1009,8 hPa 0,0 l/m 0 min 0 min 0 W/m 2,3 km/h (1 Bft) 97,87 %
15.04.2018 22:06 14,6 C 12,8 C 10,6 C 80 % 0 lf 1009,8 hPa 0,0 l/m 0 min 0 min 0 W/m 2,3 km/h (1 Bft) 95,74 %
15.04.2018 22:08 14,5 C 12,8 C 10,6 C 80 % 0 lf 1009,8 hPa 0,0 l/m 0 min 0 min 0 W/m 0,0 km/h (0 Bft) 97,87 %
15.04.2018 22:10 14,4 C 12,8 C 10,6 C 80 % 0 lf 1009,8 hPa 0,0 l/m 0 min 0 min 0 W/m 0,0 km/h (0 Bft) 97,87 %
15.04.2018 22:12 14,4 C 12,8 C 10,6 C 80 % 0 lf 1009,8 hPa 0,0 l/m 0 min 0 min 0 W/m 0,0 km/h (0 Bft) 95,74 %
15.04.2018 22:14 14,3 C 12,8 C 10,6 C 80 % 0 lf 1009,8 hPa 0,0 l/m 0 min 0 min 0 W/m 0,0 km/h (0 Bft) 97,83 %
15.04.2018 22:16 14,3 C 12,2 C 10,6 C 80 % 0 lf 1009,8 hPa 0,0 l/m 0 min 0 min 0 W/m 0,0 km/h (0 Bft) 95,74 %
15.04.2018 22:18 14,2 C 12,2 C 10,6 C 80 % 0 lf 1009,8 hPa 0,0 l/m 0 min 0 min 0 W/m 0,0 km/h (0 Bft) 97,87 %
15.04.2018 22:20 14,2 C 12,2 C 10,6 C 80 % 0 lf 1009,8 hPa 0,0 l/m 0 min 0 min 0 W/m 0,0 km/h (0 Bft) 97,87 %
15.04.2018 22:22 14,2 C 12,2 C 10,6 C 81 % 0 lf 1009,7 hPa 0,0 l/m 0 min 0 min 0 W/m 2,3 km/h (1 Bft) 97,87 %
15.04.2018 22:24 14,2 C 12,2 C 10,6 C 81 % 0 lf 1009,8 hPa 0,0 l/m 0 min 0 min 0 W/m 0,0 km/h (0 Bft) 97,87 %
15.04.2018 22:26 14,2 C 12,2 C 10,6 C 81 % 0 lf 1009,8 hPa 0,0 l/m 0 min 0 min 0 W/m 0,0 km/h (0 Bft) 93,48 %
15.04.2018 22:28 14,2 C 12,2 C 10,6 C 81 % 0 lf 1009,8 hPa 0,0 l/m 0 min 0 min 0 W/m 0,0 km/h (0 Bft) 97,87 %
15.04.2018 22:30 14,2 C 12,2 C 10,6 C 81 % 0 lf 1009,8 hPa 0,0 l/m 0 min 0 min 0 W/m 0,0 km/h (0 Bft) 93,62 %
15.04.2018 22:32 14,1 C 12,2 C 10,6 C 81 % 0 lf 1009,7 hPa 0,0 l/m 0 min 0 min 0 W/m 0,0 km/h (0 Bft) 95,74 %
15.04.2018 22:34 14,1 C 12,2 C 10,6 C 82 % 0 lf 1009,7 hPa 0,0 l/m 0 min 0 min 0 W/m 0,0 km/h (0 Bft) 95,74 %
15.04.2018 22:36 14,0 C 12,2 C 10,6 C 82 % 0 lf 1009,8 hPa 0,0 l/m 0 min 0 min 0 W/m 0,0 km/h (0 Bft) 97,87 %
15.04.2018 22:38 13,9 C 12,8 C 10,6 C 82 % 0 lf 1009,7 hPa 0,0 l/m 0 min 0 min 0 W/m 2,3 km/h (1 Bft) 95,65 %
15.04.2018 22:40 13,9 C 12,8 C 10,6 C 82 % 0 lf 1009,8 hPa 0,0 l/m 0 min 0 min 0 W/m 2,3 km/h (1 Bft) 93,62 %
15.04.2018 22:42 13,9 C 12,8 C 10,6 C 82 % 0 lf 1009,8 hPa 0,0 l/m 0 min 0 min 0 W/m 4,5 km/h (1 Bft) 95,74 %
15.04.2018 22:44 13,9 C 12,8 C 10,6 C 83 % 0 lf 1009,8 hPa 0,0 l/m 0 min 0 min 0 W/m 2,3 km/h (1 Bft) 97,87 %
15.04.2018 22:46 13,8 C 12,8 C 10,6 C 83 % 0 lf 1009,8 hPa 0,0 l/m 0 min 0 min 0 W/m 2,3 km/h (1 Bft) 95,74 %
15.04.2018 22:48 13,8 C 12,8 C 10,6 C 83 % 0 lf 1009,8 hPa 0,0 l/m 0 min 0 min 0 W/m 4,5 km/h (1 Bft) 97,87 %
15.04.2018 22:50 13,8 C 12,8 C 10,6 C 83 % 0 lf 1009,8 hPa 0,0 l/m 0 min 0 min 0 W/m 2,3 km/h (1 Bft) 95,65 %
15.04.2018 22:52 13,8 C 12,8 C 10,6 C 83 % 0 lf 1009,8 hPa 0,0 l/m 0 min 0 min 0 W/m 2,3 km/h (1 Bft) 95,74 %
15.04.2018 22:54 13,7 C 12,8 C 10,6 C 83 % 0 lf 1009,9 hPa 0,0 l/m 0 min 0 min 0 W/m 4,5 km/h (1 Bft) 93,62 %
15.04.2018 22:56 13,7 C 12,8 C 10,6 C 84 % 0 lf 1009,8 hPa 0,0 l/m 0 min 0 min 0 W/m 4,5 km/h (1 Bft) 93,62 %
15.04.2018 22:58 13,7 C 12,8 C 10,6 C 84 % 0 lf 1009,8 hPa 0,0 l/m 0 min 0 min 0 W/m 4,5 km/h (1 Bft) 93,62 %
15.04.2018 23:00 13,7 C 12,8 C 10,6 C 84 % 0 lf 1009,9 hPa 0,0 l/m 0 min 0 min 0 W/m 2,3 km/h (1 Bft) 95,74 %
15.04.2018 23:02 13,7 C 12,8 C 10,6 C 84 % 0 lf 1009,9 hPa 0,0 l/m 0 min 0 min 0 W/m 2,3 km/h (1 Bft) 95,65 %
15.04.2018 23:04 13,6 C 12,2 C 10,6 C 84 % 0 lf 1009,9 hPa 0,0 l/m 0 min 0 min 0 W/m 2,3 km/h (1 Bft) 95,74 %
15.04.2018 23:06 13,6 C 12,2 C 10,6 C 84 % 0 lf 1009,9 hPa 0,0 l/m 0 min 0 min 0 W/m 4,5 km/h (1 Bft) 93,62 %
15.04.2018 23:08 13,6 C 12,2 C 10,6 C 85 % 0 lf 1009,9 hPa 0,0 l/m 0 min 0 min 0 W/m 0,0 km/h (0 Bft) 97,87 %
15.04.2018 23:10 13,6 C 12,2 C 10,6 C 85 % 0 lf 1009,9 hPa 0,0 l/m 0 min 0 min 0 W/m 0,0 km/h (0 Bft) 95,74 %
15.04.2018 23:12 13,5 C 12,2 C 10,6 C 85 % 0 lf 1009,9 hPa 0,0 l/m 0 min 0 min 0 W/m 0,0 km/h (0 Bft) 95,74 %
15.04.2018 23:14 13,5 C 12,2 C 10,0 C 85 % 0 lf 1009,9 hPa 0,0 l/m 0 min 0 min 0 W/m 0,0 km/h (0 Bft) 97,83 %
15.04.2018 23:16 13,4 C 12,2 C 10,0 C 85 % 0 lf 1009,9 hPa 0,0 l/m 0 min 0 min 0 W/m 0,0 km/h (0 Bft) 95,74 %
15.04.2018 23:18 13,4 C 12,2 C 10,0 C 85 % 0 lf 1009,9 hPa 0,0 l/m 0 min 0 min 0 W/m 0,0 km/h (0 Bft) 97,87 %
15.04.2018 23:20 13,4 C 12,2 C 10,0 C 85 % 0 lf 1009,9 hPa 0,0 l/m 0 min 0 min 0 W/m 0,0 km/h (0 Bft) 93,62 %
15.04.2018 23:22 13,4 C 12,2 C 10,0 C 85 % 0 lf 1009,9 hPa 0,0 l/m 0 min 0 min 0 W/m 0,0 km/h (0 Bft) 91,49 %
15.04.2018 23:24 13,3 C 12,2 C 10,0 C 85 % 0 lf 1009,9 hPa 0,0 l/m 0 min 0 min 0 W/m 0,0 km/h (0 Bft) 95,74 %
15.04.2018 23:26 13,3 C 12,2 C 10,0 C 85 % 0 lf 1009,9 hPa 0,0 l/m 0 min 0 min 0 W/m 0,0 km/h (0 Bft) 95,65 %
15.04.2018 23:28 13,3 C 12,2 C 10,0 C 85 % 0 lf 1010,0 hPa 0,0 l/m 0 min 0 min 0 W/m 0,0 km/h (0 Bft) 95,74 %
15.04.2018 23:30 13,3 C 12,2 C 10,0 C 85 % 0 lf 1010,0 hPa 0,0 l/m 0 min 0 min 0 W/m 4,5 km/h (1 Bft) 93,62 %
15.04.2018 23:32 13,2 C 12,2 C 9,4 C 86 % 0 lf 1010,0 hPa 0,0 l/m 0 min 0 min 0 W/m 4,5 km/h (1 Bft) 95,74 %
15.04.2018 23:34 13,2 C 11,7 C 9,4 C 86 % 0 lf 1009,9 hPa 0,0 l/m 0 min 0 min 0 W/m 2,3 km/h (1 Bft) 95,74 %
15.04.2018 23:36 13,2 C 11,7 C 9,4 C 85 % 0 lf 1010,0 hPa 0,0 l/m 0 min 0 min 0 W/m 4,5 km/h (1 Bft) 95,65 %
15.04.2018 23:38 13,2 C 11,7 C 9,4 C 85 % 0 lf 1010,0 hPa 0,0 l/m 0 min 0 min 0 W/m 4,5 km/h (1 Bft) 93,62 %
15.04.2018 23:40 13,1 C 11,7 C 9,4 C 85 % 0 lf 1010,0 hPa 0,0 l/m 0 min 0 min 0 W/m 2,3 km/h (1 Bft) 95,74 %
15.04.2018 23:42 13,1 C 11,7 C 9,4 C 85 % 0 lf 1009,9 hPa 0,0 l/m 0 min 0 min 0 W/m 2,3 km/h (1 Bft) 97,87 %
15.04.2018 23:44 13,1 C 11,7 C 9,4 C 86 % 0 lf 1009,9 hPa 0,0 l/m 0 min 0 min 0 W/m 2,3 km/h (1 Bft) 97,87 %
15.04.2018 23:46 13,1 C 11,7 C 9,4 C 86 % 0 lf 1009,9 hPa 0,0 l/m 0 min 0 min 0 W/m 4,5 km/h (1 Bft) 95,74 %
15.04.2018 23:48 13,0 C 11,7 C 9,4 C 86 % 0 lf 1009,9 hPa 0,0 l/m 0 min 0 min 0 W/m 4,5 km/h (1 Bft) 95,65 %
15.04.2018 23:50 12,9 C 11,7 C 9,4 C 86 % 0 lf 1009,9 hPa 0,0 l/m 0 min 0 min 0 W/m 4,5 km/h (1 Bft) 97,87 %
15.04.2018 23:52 12,9 C 11,7 C 9,4 C 86 % 0 lf 1009,9 hPa 0,0 l/m 0 min 0 min 0 W/m 4,5 km/h (1 Bft) 100,00 %
15.04.2018 23:54 12,9 C 11,7 C 9,4 C 86 % 0 lf 1009,9 hPa 0,0 l/m 0 min 0 min 0 W/m 4,5 km/h (1 Bft) 93,62 %
15.04.2018 23:56 12,9 C 11,7 C 9,4 C 86 % 0 lf 1009,9 hPa 0,0 l/m 0 min 0 min 0 W/m 6,8 km/h (2 Bft) 93,62 %
15.04.2018 23:58 12,8 C 11,7 C 9,4 C 86 % 0 lf 1009,9 hPa 0,0 l/m 0 min 0 min 0 W/m 6,8 km/h (2 Bft) 97,87 %
_ Min-Zeit 07:12 06:28 23:32 16:26 00:00 17:28 - - - - 02:30 16:00
Minimum _ 11,5 C 10,6 C 9,4 C 62 % 0 lf 1008,9 hPa - - - - 0,0 km/h (0 Bft) 89,13 %
_ Max-Zeit 16:38 12:24 11:48 09:12 00:48 00:40 00:52 09:38 05:43 12:56 09:30 00:32
Maximum _ 19,3 C 27,8 C 25,0 C 99 % 15 lf 1015,9 hPa 0,2 l/m 4 min 5 min 979 W/m 27,0 km/h
S (4 Bft)
100,00 %
Durchschnitt _ 15,0 C 15,7 C 14,1 C 82 % 6 lf 1011,8 hPa #3,0 l/m #4:26 h #6:27 h 262 W/m 9,8 km/h (2 Bft) 96,46 %
© 2018 W. Hausmann